                ,  0.290,  0.386,  0.483,  0.580,  0.676,  0.773,  0.869,  0.966,  1.063,  1.159,  1.256,  1.352,  1.449,  1.545,  1.642,  1.739,  1.835,  1.932,  2.028,  2.125,  2.222,  2.318,  2.415,  2.511,  2.608,  2.705,  2.801,  2.898,  2.994,  3.091,  3.188,  3.284,  3.381,  3.477,  3.574,  3.671,  3.767,  3.864,  3.960,  4.057,  4.153,  4.250,  4.347,  4.443,  4.540,  4.636,  4.733,  4.830,  4.926,  5.023,  5.119,  5.216,  5.313,  5.409,  5.506,  5.602,  5.699,  5.796
2000/12/19 00:00,  999.0,  999.0,  999.0,   -1.2,  999.0,  999.0,  999.0,    2.2,    2.8,   -0.0,    2.8,    4.5,  999.0,  999.0,    3.3,    4.9,    6.3,    5.6,    6.3,    8.4,  999.0,  999.0,   13.8,  999.0,  999.0,  999.0,  999.0,  999.0,  999.0,  999.0,  999.0,  999.0,  999.0,  999.0,  999.0,  999.0,  999.0,  999.0,  999.0,  999.0,  999.0,  999.0,  999.0,  999.0,  999.0,  999.0,  999.0,  999.0,  999.0,  999.0,  999.0,  999.0,  999.0,  999.0,  999.0,  999.0,  999.0,  999.0
2000/12/19 00:10,  999.0,    3.2,   -0.5,    1.0,   -0.3,  999.0,    2.5,    2.3,    3.6,    2.5,    3.4,    4.2,    5.5,    4.1,    4.6,    5.4,    5.8,    5.9,    6.4,    8.2,  999.0,  999.0,  999.0,  999.0,  999.0,  999.0,  999.0,  999.0,  999.0,  999.0,  999.0,  999.0,  999.0,   29.8,  999.0,  999.0,   29.3,   41.8,   29.2,   42.2,  999.0,   42.0,   41.7,   29.5,  999.0,  999.0,  999.0,  999.0,   29.7,   35.5,  999.0,  999.0,   29.1,  999.0,   41.2,   41.2,  999.0,   41.5
2000/12/19 00:20,  999.0,    1.0,    0.6,   -0.9,   -0.6,   -1.6,    0.8,    2.2,    0.4,    2.8,    3.9,    5.1,    6.4,    5.1,    4.7,    5.4,    5.9,    5.7,    5.8,    7.8,   10.2,  999.0,  999.0,  999.0,  999.0,  999.0,  999.0,  999.0,  999.0,  999.0,  999.0,  999.0,  999.0,  999.0,  999.0,  999.0,  999.0,  999.0,  999.0,  999.0,  999.0,  999.0,  999.0,   30.2,  999.0,  999.0,  999.0,  999.0,  999.0,  999.0,  999.0,  999.0,  999.0,  999.0,   42.3,  999.0,   42.6,  999.0
2000/12/19 00:30,  999.0,   -2.4,    0.6,    1.9,    2.3,    0.8,    1.8,    2.9,    3.3,    3.8,    4.9,    5.5,  999.0,    3.9,    4.8,    5.7,    6.9,    5.6,    5.3,    5.8,  999.0,    7.5,  999.0,   23.2,   26.3,   25.4,   26.0,   26.1,   26.7,   29.0,   29.7,   29.8,   29.5,  999.0,  999.0,  999.0,   34.8,   34.4,   36.2,   37.3,   36.7,  999.0,   39.0,   38.5,   38.9,   39.3,   41.0,  999.0,   40.4,  999.0,   41.6,   41.9,  999.0,   41.6,   42.1,   41.9,   42.3,  999.0
2000/12/19 00:40,  999.0,    1.7,    2.2,    2.0,    2.3,    2.4,    3.9,    3.8,    4.2,    4.2,    3.7,  999.0,  999.0,    3.1,    5.2,    5.7,    7.2,  999.0,  999.0,  999.0,  999.0,  999.0,  999.0,  999.0,  999.0,  999.0,   27.4,  999.0,   23.3,  999.0,   30.4,   30.7,   31.9,  999.0,   33.5,   28.0,   34.6,   35.1,   32.8,   38.1,   37.7,   38.5,   36.0,   39.8,   40.7,   41.3,   41.4,   42.0,   42.1,   41.8,   41.3,   37.1,  999.0,   42.1,   42.3,   42.4,  999.0,   41.4
2000/12/19 00:50,  999.0,    0.9,    1.0,    2.0,    2.5,    4.4,    3.9,    5.4,    3.8,    4.8,    4.6,    4.8,    2.7,    3.8,    5.2,    5.9,    7.4,    8.1,  999.0,  999.0,  999.0,  999.0,  999.0,   23.6,  999.0,  999.0,  999.0,   25.2,  -11.6,   29.3,  -10.4,   10.8,  999.0,   -7.4,   21.7,   37.4,   37.6,  999.0,   18.5,   40.7,  999.0,   27.6,   41.9,   42.1,   41.9,   27.7,   20.7,   42.0,   42.2,   20.6,   41.8,   34.9,   27.4,   42.2,   41.8,   20.0,   42.1,   20.4
2000/12/19 01:00,  999.0,    1.4,    1.8,    2.8,    5.5,    4.5,    3.5,    4.0,    4.3,    4.2,    4.9,    6.0,    5.2,    5.4,    5.7,    6.3,    8.6,    9.7,   11.6,   13.7,   13.9,   16.1,   18.8,  999.0,  999.0,  999.0,  999.0,  999.0,  999.0,  999.0,   38.0,   40.1,   39.3,   39.7,   40.1,   41.0,   41.6,   42.2,   41.6,   42.1,   41.6,   41.7,   41.5,   41.7,   42.4,   41.3,   41.7,   42.3,   41.7,  999.0,   41.8,  999.0,   41.7,   42.4,   41.8,   42.0,   41.9,   41.7
2000/12/19 01:10,  999.0,    1.2,    0.7,    1.7,    2.2,    2.4,    3.2,    3.9,    3.4,    4.3,    5.1,    5.3,    4.9,    3.8,    5.9,    5.9,  999.0,    7.3,    8.6,    8.1,    8.0,  999.0,  999.0,  999.0,  999.0,  999.0,  999.0,  999.0,  999.0,  999.0,  999.0,  999.0,  999.0,  999.0,  999.0,  999.0,  999.0,  999.0,  999.0,  999.0,  999.0,  999.0,  999.0,  999.0,  999.0,  999.0,  999.0,  999.0,  999.0,  999.0,  999.0,  999.0,  999.0,  999.0,  999.0,  999.0,  999.0,  999.0
2000/12/19 01:20,  999.0,   -4.8,    0.7,    0.1,    2.2,    2.7,    4.4,    4.7,    4.6,    4.5,    8.3,    5.1,    4.4,    5.3,    5.3,    5.9,  999.0,    6.0,    3.0,    0.9,   -0.1,   -1.6,  999.0,  999.0,  999.0,  999.0,  999.0,    1.8,  999.0,  999.0,  999.0,  999.0,  999.0,  999.0,  999.0,  999.0,  999.0,  999.0,  999.0,  999.0,  999.0,  999.0,  999.0,  999.0,  999.0,  999.0,  999.0,  999.0,  999.0,  999.0,  -10.3,  999.0,  999.0,  999.0,  999.0,  -10.8,  999.0,  999.0
2000/12/19 01:30,  999.0,    1.3,    1.2,    4.9,    1.5,    1.1,    2.3,    2.0,    1.8,    4.6,    3.1,    4.5,    4.5,    3.8,    4.4,    5.5,    7.0,    7.9,    8.0,    7.5,    7.9,    8.2,    8.5,  999.0,  999.0,  999.0,  999.0,  999.0,  999.0,  999.0,  999.0,  999.0,  999.0,  999.0,  999.0,  999.0,  999.0,  999.0,  999.0,  999.0,  999.0,  999.0,  -10.8,  999.0,  999.0,  999.0,  999.0,  999.0,  999.0,  999.0,  999.0,  999.0,  -10.2,  999.0,  -10.6,  999.0,  -10.9,  999.0
2000/12/19 01:40,  999.0,    1.4,    0.7,    1.2,    1.0,    2.4,    3.2,    3.2,    3.6,    5.8,    5.6,    5.1,    4.4,    3.5,    4.0,    5.9,    7.2,    7.1,    7.7,    7.5,    7.2,    6.8,    6.0,    3.5,  999.0,  999.0,  999.0,  999.0,  999.0,  999.0,  999.0,   -7.3,   -6.2,  999.0,  999.0,  999.0,  999.0,  999.0,  999.0,  999.0,  999.0,  999.0,  999.0,  999.0,  999.0,  999.0,  999.0,  999.0,  999.0,  999.0,  999.0,  999.0,  999.0,  999.0,  999.0,  999.0,  999.0,  999.0
2000/12/19 01:50,  999.0,    0.5,    0.8,    1.2,    1.1,    2.4,    3.1,    4.2,    7.6,    5.5,    6.8,    5.0,    4.4,    4.1,    5.0,    6.5,    7.3,    7.8,    7.4,    7.9,    8.3,    8.0,    7.4,    7.8,  999.0,    4.4,  999.0,  999.0,  999.0,  999.0,   -3.4,   -3.6,  999.0,  999.0,  999.0,  999.0,  999.0,  999.0,  999.0,  999.0,  -10.3,  999.0,  -10.3,  -10.2,  999.0,  999.0,  999.0,  999.0,  999.0,  999.0,  -10.9,  999.0,  999.0,  999.0,  -10.3,  -10.7,  999.0,  999.0
2000/12/19 02:00,  999.0,    1.0,    0.6,   -0.9,    2.3,    2.2,    2.4,    2.8,    4.5,    4.2,    5.1,    4.9,    4.4,    4.0,    4.6,    6.6,    7.8,    8.3,    7.7,    7.5,    6.5,    6.2,    6.8,  999.0,  999.0,  999.0,  999.0,  999.0,  999.0,  999.0,  999.0,   -5.7,  999.0,  999.0,  -11.4,  999.0,  999.0,  999.0,  999.0,  999.0,  999.0,  999.0,  999.0,  999.0,  999.0,  999.0,  999.0,  999.0,  999.0,  -10.5,  999.0,  999.0,  999.0,  999.0,  -10.6,  999.0,  999.0,  -10.5
2000/12/19 02:10,  999.0,    1.9,   -0.1,    1.3,    2.0,    2.4,    2.9,    4.7,    6.2,    5.3,    6.0,    5.5,    3.9,    4.0,    4.9,    6.5,    7.1,    7.2,    7.1,    7.3,    6.9,    6.2,    6.2,  999.0,  999.0,  999.0,  999.0,  999.0,  999.0,  999.0,  999.0,  999.0,  999.0,  999.0,  999.0,  999.0,  999.0,  999.0,  999.0,  999.0,  999.0,  999.0,  999.0,  999.0,  999.0,  999.0,  999.0,  999.0,  999.0,  999.0,  999.0,  999.0,  999.0,  999.0,  999.0,  999.0,  999.0,  999.0
2000/12/19 02:20,  999.0,    2.4,   -1.7,   -0.3,    2.4,    1.6,    3.3,  999.0,    3.0,    4.4,    6.2,    4.1,    4.6,    4.2,    5.1,    6.4,    7.1,    6.5,    6.5,    6.2,    7.1,    7.4,   10.9,  999.0,  999.0,  999.0,   -5.5,  999.0,  999.0,  999.0,  999.0,  999.0,  999.0,  999.0,  999.0,  999.0,  999.0,  999.0,  999.0,  -41.5,  -41.6,  -41.8,  -42.2,  999.0,  -42.1,  -23.0,  -41.7,  -41.8,  -21.7,  -28.5,  -41.4,   -1.0,  999.0,  999.0,  -21.1,  -41.9,  -22.1,  -21.4
2000/12/19 02:30,  999.0,   -0.4,    0.7,    2.1,    1.7,    3.6,    4.6,    5.7,    6.4,    6.8,    7.5,    6.9,    5.3,    4.4,    5.6,    6.3,    6.5,    7.0,    6.1,    7.2,    7.4,    7.5,    9.3,  999.0,  999.0,  999.0,  999.0,  999.0,  999.0,  999.0,  999.0,  -25.5,  999.0,  999.0,  999.0,  999.0,  999.0,  999.0,  999.0,  999.0,  -42.0,  999.0,  999.0,  -42.1,  -41.5,  -42.0,  -42.1,  999.0,  -42.2,  -42.3,  -42.2,  -41.3,  -41.4,  -41.3,  999.0,  999.0,  -42.0,  -42.2
2000/12/19 02:40,  999.0,    2.5,   -0.2,    1.0,    1.8,    3.7,    6.9,    8.2,    7.7,    7.3,    7.7,    6.7,    4.6,    4.9,    6.1,    6.7,    7.6,    8.5,    7.6,    6.8,    6.4,    6.5,    6.5,    6.3,  999.0,  999.0,  999.0,  999.0,  999.0,  999.0,  999.0,  999.0,  -20.0,  999.0,  999.0,  999.0,  -33.3,  999.0,  999.0,  999.0,  -41.7,  999.0,  -41.8,  -41.6,  -41.5,  -41.4,  -41.6,  -41.6,  -41.8,  -41.8,  -41.3,  -42.0,  -42.0,  -41.8,  -42.6,  -42.3,  999.0,  -42.2
2000/12/19 02:50,  999.0,  999.0,    9.6,    1.7,    0.5,    7.3,   -0.8,    4.3,    7.5,    5.4,    5.0,    5.8,    4.7,    5.0,    5.4,    6.6,    7.0,    7.8,    8.5,    8.1,    5.9,    9.9,   11.0,  999.0,  999.0,  999.0,  999.0,  999.0,  999.0,  999.0,  999.0,  999.0,  999.0,  999.0,  999.0,  999.0,  999.0,  999.0,    1.3,  999.0,  -20.8,   -0.5,  -41.2,  -41.8,  -41.7,  -42.1,   -0.8,  -21.4,   -1.2,  -21.5,  -22.0,  -21.6,  999.0,  -42.1,  -42.0,  -42.0,  999.0,  -41.7
2000/12/19 03:00,  999.0,  999.0,  999.0,  999.0,   12.9,    9.8,   11.2,   10.5,    7.5,    7.5,    8.6,    5.1,    3.4,    4.2,    4.5,    5.3,    6.4,    6.7,    5.3,    3.5,  999.0,    8.8,    1.9,    2.3,    1.9,  999.0,   -9.6,   -8.7,  999.0,  999.0,  999.0,  999.0,  999.0,  -32.9,  999.0,  999.0,  999.0,  999.0,  999.0,  999.0,  999.0,  999.0,  999.0,  999.0,  -41.3,  999.0,  999.0,  -41.8,  999.0,  999.0,  999.0,  999.0,  999.0,  -41.8,  -41.7,  999.0,  -42.5,  -41.5
2000/12/19 03:10,  999.0,   -2.4,    1.3,    1.4,    4.3,    3.2,  999.0,    6.6,   10.1,    7.4,    7.0,    5.5,    5.7,    5.9,    4.4,    6.5,    6.6,    6.3,    6.1,  999.0,    5.1,    5.6,    6.8,   -1.5,  999.0,  999.0,   11.7,  999.0,  999.0,  999.0,  999.0,  999.0,  999.0,   -0.1,  999.0,    0.5,  999.0,    0.0,  999.0,  999.0,  999.0,  999.0,  -41.6,  -20.3,  999.0,  -20.3,  -42.0,    0.6,  -20.0,    0.7,  999.0,  -20.3,    1.9,  999.0,  -30.9,  -20.5,  -42.1,  -30.9
2000/12/19 03:20,  999.0,   -3.0,    2.6,    3.0,   -1.3,    7.6,    4.0,  999.0,  999.0,  999.0,    7.9,    7.5,    6.7,    6.9,    7.3,    7.1,    7.3,    6.9,    6.8,    7.2,    6.5,    8.0,    9.0,    9.0,  999.0,  999.0,  999.0,  999.0,  999.0,  999.0,  999.0,  999.0,  999.0,  999.0,  999.0,  999.0,  999.0,  999.0,  999.0,  999.0,  999.0,  999.0,  999.0,  -41.9,  -41.6,  999.0,  -42.0,  999.0,  999.0,  -42.2,  -42.3,  999.0,  999.0,  -42.1,  -41.3,  -42.6,  -42.2,  -42.2
2000/12/19 03:30,  999.0,    9.6,    4.4,    6.7,   -1.3,   12.3,   11.1,   10.9,    9.9,   12.3,    6.2,    6.5,    7.0,    7.0,    7.3,    7.6,    7.1,    7.5,    5.0,    4.4,   -4.3,    4.8,    9.2,   10.0,   10.9,   13.8,  999.0,  999.0,  999.0,  999.0,  999.0,  999.0,  999.0,  999.0,  999.0,  999.0,  -41.3,  -41.8,  -42.3,  999.0,  999.0,  999.0,  -41.6,  999.0,  -41.7,  -41.3,  -41.9,  -41.5,  -41.5,  -41.6,  -41.3,  -41.2,  -42.2,  -41.4,  -41.7,  999.0,  -41.3,  -41.4
2000/12/19 03:40,  999.0,    5.9,    5.1,    4.2,    1.7,    8.2,   10.1,    6.7,   10.5,   12.0,    6.9,    7.3,    6.6,    6.7,    7.0,    6.8,    7.0,    6.4,    5.3,    5.1,    4.7,    5.1,    5.5,    6.4,  999.0,    0.9,   10.8,  999.0,  999.0,  999.0,  999.0,  999.0,  999.0,  999.0,  999.0,  -41.9,  -41.8,  999.0,  -42.1,  999.0,  999.0,  -41.8,  -42.1,  999.0,  -42.0,  999.0,  999.0,  -42.0,  -42.5,  999.0,  -41.4,  -41.8,  999.0,  -41.3,  -42.1,  999.0,  -14.4,  999.0
2000/12/19 03:50,  999.0,   -0.9,    5.7,   -0.2,   -1.3,   11.1,  999.0,   22.2,   11.6,   10.3,    8.2,    6.5,    6.2,    6.0,    6.3,    7.2,    8.4,    6.7,    5.7,    5.2,    5.6,    2.9,    2.3,    2.4,  999.0,  999.0,  999.0,  999.0,  999.0,  999.0,  999.0,  999.0,  999.0,  999.0,  999.0,  999.0,  999.0,  999.0,  999.0,  -42.5,  999.0,  -42.0,  -41.7,  -41.2,  999.0,  -42.1,  999.0,  999.0,  -42.0,  999.0,  999.0,  999.0,  999.0,  -42.5,  999.0,  -42.6,  999.0,  999.0
2000/12/19 04:00,  999.0,   12.4,    9.3,   12.0,   12.4,   13.8,   12.2,  999.0,   14.6,   13.5,    5.4,    6.1,    5.7,    5.7,    6.6,    7.4,    7.2,    6.1,    6.1,    7.9,    9.7,  999.0,   15.1,   17.8,  999.0,  999.0,  999.0,  999.0,  999.0,  999.0,  999.0,  999.0,  999.0,  999.0,  999.0,  999.0,  999.0,  999.0,  999.0,  -27.8,  999.0,  999.0,  999.0,  999.0,  999.0,  -34.7,  -14.3,  999.0,   -4.2,  999.0,  999.0,  -35.9,  999.0,  999.0,  -22.5,  -41.8,  999.0,  -21.8
2000/12/19 04:10,  999.0,  999.0,    5.4,    9.1,  999.0,    9.2,  999.0,   12.9,   12.0,  999.0,   16.8,    7.0,    7.0,    6.2,    5.8,    6.3,    7.9,    7.9,    6.8,    8.0,    7.8,  999.0,  999.0,   10.4,  999.0,  999.0,  999.0,   21.7,   21.1,  999.0,   21.1,  999.0,   20.9,   21.7,   21.1,  999.0,  999.0,  999.0,  999.0,   21.5,   22.4,  999.0,  999.0,  999.0,  999.0,  999.0,  999.0,  999.0,  999.0,  999.0,  999.0,  999.0,  999.0,  999.0,  999.0,  999.0,  999.0,  999.0
2000/12/19 04:20,  999.0,    6.2,  999.0,  999.0,  999.0,    1.2,    4.9,    4.4,  999.0,    7.5,    7.0,    6.3,    5.9,    5.2,    5.2,    6.2,    7.3,    8.0,    7.7,  999.0,  999.0,  999.0,   10.4,   11.9,   18.4,  999.0,  999.0,  999.0,  999.0,  999.0,  999.0,  999.0,  999.0,  999.0,  999.0,  999.0,  999.0,  999.0,  999.0,  999.0,  999.0,  999.0,  999.0,  999.0,  999.0,  999.0,  999.0,  999.0,  999.0,  999.0,  999.0,  999.0,  999.0,  999.0,  999.0,  999.0,  999.0,  999.0
2000/12/19 04:30,  999.0,  999.0,  999.0,   16.5,   22.1,  999.0,   12.0,    7.2,    1.8,    9.4,    4.3,    5.2,    6.4,    6.3,    4.8,    6.7,    7.7,    7.9,  999.0,  999.0,  999.0,  999.0,  999.0,    3.0,    3.6,    6.2,    0.6,    0.3,    2.0,  999.0,  999.0,  999.0,  999.0,  999.0,  999.0,  999.0,  999.0,  999.0,  999.0,  999.0,  999.0,  999.0,  999.0,  999.0,  -37.2,  999.0,  999.0,  999.0,  -41.2,  -42.1,  999.0,  999.0,  -42.4,  -42.3,  999.0,  999.0,  -41.4,  999.0
2000/12/19 04:40,  999.0,  999.0,  999.0,  999.0,    9.4,    3.2,    4.4,   14.4,   11.4,    8.9,    6.4,    6.2,    6.3,    5.4,    5.1,    6.8,    8.5,    8.2,    6.4,    6.6,   10.2,  999.0,    7.5,    6.6,    2.5,  999.0,    0.9,    1.0,    0.9,   -0.5,  999.0,  999.0,   39.3,   39.8,  999.0,   41.4,  999.0,  999.0,  999.0,  999.0,  999.0,  999.0,  999.0,  999.0,  999.0,  -42.1,  -44.3,  -41.9,  999.0,  -42.7,   -4.6,  -41.1,  -42.1,  -42.0,  -41.7,  -42.1,  999.0,  -41.4
2000/12/19 04:50,  999.0,   -2.1,   21.8,   10.3,    1.4,    7.2,    3.7,    4.5,    4.7,    7.3,    8.1,    7.5,    6.5,    6.1,    5.0,    5.5,    6.4,    6.3,    5.9,    5.5,    5.3,  999.0,  999.0,    3.5,    3.9,   -0.9,  999.0,    2.3,    0.9,  999.0,  999.0,  999.0,  999.0,  999.0,  -20.0,  999.0,  999.0,  999.0,  999.0,  999.0,  999.0,  999.0,  999.0,  999.0,  -41.2,  999.0,  -41.8,  -41.8,  -41.2,  -42.2,  -42.6,  -42.0,  999.0,  999.0,  -41.9,  999.0,  999.0,  999.0
2000/12/19 05:00,  999.0,  999.0,    0.4,  999.0,    1.4,    2.9,    4.5,    3.9,    5.0,    6.8,    8.4,    8.0,    8.1,    7.0,    7.1,    6.9,    6.0,    6.3,    6.9,  999.0,  999.0,  999.0,    2.9,    3.0,    2.6,  999.0,    0.4,   -0.3,  999.0,   -2.2,   -3.6,  999.0,  999.0,  999.0,  999.0,  999.0,  999.0,  999.0,  999.0,  999.0,  999.0,  -42.2,  999.0,  -41.3,  999.0,  999.0,  999.0,  999.0,  -42.2,  -42.2,  -41.9,  -41.8,  999.0,  -41.0,  999.0,  -41.6,  999.0,  999.0
2000/12/19 05:10,  999.0,  999.0,   17.8,  999.0,  999.0,    2.2,    2.7,    4.5,    5.6,    6.7,    8.6,    8.9,    8.3,    7.1,    6.2,    6.2,    6.2,    6.0,    5.7,    4.2,  999.0,  999.0,    0.2,   -0.1,  999.0,  999.0,   -5.2,   -2.5,    1.5,    1.0,  999.0,  999.0,  999.0,  999.0,  999.0,  999.0,  999.0,  999.0,  999.0,  999.0,  -35.3,  999.0,  999.0,  999.0,  -41.2,  -41.7,  -41.8,  -42.4,  -41.5,  -41.8,  -41.6,  -42.2,  -41.5,  999.0,  -41.2,  -41.0,  -42.6,  -41.7
2000/12/19 05:20,  999.0,  999.0,   22.0,   21.1,  999.0,    3.1,    3.6,    5.2,    6.1,    7.4,    8.6,    7.9,    7.7,    6.3,    6.1,    6.3,    5.5,    5.0,    5.2,    3.6,  999.0,    0.4,  999.0,    2.2,    1.5,    0.4,  999.0,  999.0,  999.0,  999.0,  999.0,  999.0,  999.0,  -18.7,  999.0,  999.0,  999.0,  999.0,  999.0,  999.0,  999.0,  999.0,  999.0,  999.0,  -40.7,  -41.8,  -42.1,  999.0,  -42.2,  -42.3,  -41.9,  -42.1,  -42.3,  999.0,  -41.8,  -41.5,  -42.1,  999.0
2000/12/19 05:30,  999.0,  999.0,  999.0,  999.0,  999.0,    3.5,    5.2,    5.4,    7.2,    7.6,    8.7,    7.8,    6.3,    5.9,    5.6,    6.7,    5.2,    3.9,    2.6,    0.4,  999.0,   -2.2,  999.0,  999.0,  999.0,  999.0,  999.0,  999.0,  999.0,  999.0,  999.0,  999.0,  999.0,  999.0,  999.0,  -28.1,  999.0,  999.0,  999.0,  999.0,  999.0,  999.0,  999.0,  999.0,  -42.1,  -41.8,  999.0,  -42.5,  -42.8,  -42.0,  -41.7,  -41.5,  -42.0,  -41.6,  999.0,  -41.8,  999.0,  999.0
2000/12/19 05:40,  999.0,  999.0,  999.0,  999.0,  999.0,  999.0,    5.1,    6.5,    7.3,    8.1,    8.9,    7.7,    6.1,    5.2,    5.4,    6.5,    6.0,    6.7,    6.4,  999.0,    7.7,   10.3,  999.0,  999.0,    5.0,    5.2,    4.5,  999.0,  999.0,  999.0,  999.0,  999.0,  999.0,  999.0,  999.0,  999.0,  999.0,  999.0,  999.0,  999.0,  999.0,  999.0,   -1.2,  999.0,  -25.1,  999.0,  -38.3,  -40.1,   -0.7,  -40.9,  -41.3,  -21.3,   -1.1,  -28.6,  -21.8,   -0.6,  -42.2,  -42.8
2000/12/19 05:50,  999.0,  999.0,  999.0,  999.0,  999.0,    7.8,    6.2,    6.8,    7.5,    9.0,    9.4,    8.2,    7.2,    4.9,    5.1,    6.8,    7.0,    5.9,    5.6,    5.3,    5.1,    4.0,    4.1,    4.8,    5.4,  999.0,  999.0,  999.0,  999.0,  999.0,  999.0,  999.0,  999.0,  999.0,  999.0,  999.0,  999.0,  999.0,  999.0,  999.0,  999.0,  -38.3,  -38.3,  -39.2,  -39.4,  -41.1,  -41.5,  -41.3,  -42.0,  -41.9,  -41.9,  -41.8,  -41.7,  -41.7,  -41.9,  -42.3,  -42.1,  -41.9
2000/12/19 06:00,  999.0,  999.0,  999.0,  999.0,  999.0,   10.9,    5.3,    6.7,    8.3,    8.8,    8.3,    8.2,    6.9,    4.6,    4.9,    6.4,    3.5,    4.6,    3.7,    1.4,  999.0,  999.0,    2.0,    0.9,    0.4,    0.0,   -0.5,  999.0,  999.0,  999.0,  999.0,  999.0,  999.0,  999.0,  999.0,  999.0,  999.0,  999.0,  999.0,  999.0,  999.0,  999.0,  -40.3,  -41.2,  -41.6,  -41.8,  -42.1,  -42.3,  -42.0,  -41.7,  -41.8,  -41.3,  999.0,  -41.4,  -42.6,  -41.5,  -41.7,  -42.1
2000/12/19 06:10,  999.0,   20.0,  999.0,  999.0,  999.0,  999.0,    5.7,    6.5,    7.7,    7.6,    6.7,    6.6,    6.0,    4.8,    5.1,    6.5,    6.1,    5.5,    3.7,    3.0,  999.0,    0.9,   -0.0,   -1.0,   -1.4,   -2.4,   -4.6,  999.0,  999.0,  999.0,  999.0,  999.0,  999.0,  999.0,  999.0,  999.0,  999.0,  999.0,  999.0,  999.0,  -41.1,  -41.5,  -42.1,  -41.9,  -42.2,  -42.2,  -41.8,  -42.0,  -41.4,  -42.0,  -42.4,  -41.6,  -42.1,  -41.9,  -42.1,  -42.1,  999.0,  -42.1
2000/12/19 06:20,  999.0,   20.5,  999.0,  999.0,  999.0,  999.0,    6.0,    6.6,    7.5,    6.9,    7.3,    7.9,    5.3,    5.1,    5.7,    7.5,    6.2,    5.1,    3.8,    2.3,    2.3,    0.0,   -1.7,   -2.1,   -3.1,   -4.0,  999.0,  999.0,  999.0,  999.0,  999.0,  999.0,  999.0,  999.0,  999.0,  999.0,  999.0,  999.0,  999.0,  999.0,  999.0,  -41.4,  -41.8,  -41.8,  -42.2,  -41.5,  -41.5,  -41.5,  -41.8,  -41.9,  999.0,  -41.7,  -41.7,  -41.8,  -41.7,  -42.4,  -41.9,  -41.9
2000/12/19 06:30,  999.0,  999.0,  999.0,  999.0,   -3.0,    1.4,    4.8,    5.1,    6.0,    6.8,    7.4,    7.0,    3.5,    3.4,    4.8,   -0.6,   -2.3,   -5.6,   -5.1,   -6.5,   -7.7,   -8.3,   -9.7,   -9.2,  -11.4,  -11.4,  -11.1,  999.0,  999.0,  999.0,  999.0,  999.0,  999.0,  999.0,  999.0,  999.0,  999.0,  999.0,   -7.4,  999.0,  999.0,  -42.1,  -41.9,  -42.3,  -41.9,  -20.8,  -41.9,  -20.8,  -27.4,  -41.7,  -27.3,  -41.7,  -26.6,  -27.6,    0.7,  -27.6,  -20.3,  -27.3
2000/12/19 06:40,  999.0,   16.8,    5.3,   -5.0,   -0.3,    2.4,    3.7,    6.1,    6.2,    6.9,    7.4,    5.9,    3.7,    4.4,    7.0,    8.1,    8.4,    9.3,  999.0,   15.6,   19.8,   22.7,   25.4,   28.8,   31.5,  999.0,  999.0,   42.6,   42.2,   35.5,  999.0,   22.0,   23.2,  999.0,   41.6,   41.6,   28.8,   35.8,   25.3,   41.7,   37.1,   42.9,   42.3,   42.0,   42.2,   22.1,   41.8,   28.3,   24.3,   41.3,   42.1,  999.0,   41.8,   41.6,   42.3,   42.2,   41.9,   41.7
2000/12/19 06:50,  999.0,   -1.6,   -1.5,    1.1,    5.0,    1.0,    4.2,    5.7,    6.6,    6.6,    7.0,    5.7,    4.1,    4.8,    7.2,   11.6,   17.2,  999.0,   16.3,   22.8,   13.7,   16.7,   19.5,   22.8,   25.3,  999.0,   41.1,   32.3,   41.6,   41.2,   41.9,   41.4,   41.9,   41.8,   39.0,   41.4,   39.9,   41.6,   42.2,   33.4,   31.3,   22.7,   28.3,   21.3,   41.5,   28.1,   21.6,   28.3,   20.9,   41.1,   27.5,   28.1,   28.3,   21.0,   21.5,  999.0,   28.3,   20.9
2000/12/19 07:00,  999.0,   -2.4,   -1.5,    0.6,   -0.4,    2.3,    3.7,    3.5,    6.0,    6.0,    7.2,    6.2,    4.4,    4.7,  999.0,  999.0,  999.0,    4.2,    2.6,    3.0,   -0.0,   -1.1,    1.7,   -1.8,  999.0,  999.0,  999.0,  999.0,  999.0,  999.0,  999.0,  999.0,  999.0,  999.0,  999.0,  999.0,   19.5,  999.0,   26.3,   29.3,  999.0,   35.9,   39.2,  999.0,   41.8,  999.0,   41.2,   41.8,   41.9,  999.0,   29.7,   25.0,   40.6,   30.2,   20.6,  999.0,    1.0,   14.0
2000/12/19 07:10,  999.0,  999.0,   -1.0,   -0.6,    0.8,    2.5,    4.2,    5.6,    6.2,    6.9,    8.0,    7.1,    5.1,    6.2,    7.7,    7.7,  999.0,  999.0,    5.2,    4.0,    3.8,    2.1,    1.3,    1.0,  999.0,  999.0,  999.0,  999.0,  999.0,  999.0,  999.0,  999.0,  999.0,  999.0,    0.7,    0.9,    1.3,    0.9,  999.0,  999.0,    0.8,    1.1,    1.0,    0.3,    0.5,    0.7,    0.5,  999.0,    0.6,    0.4,    1.3,    1.1,    1.4,    0.8,  999.0,    1.6,    0.8,    1.0
2000/12/19 07:20,  999.0,   -1.1,   -1.3,   -2.3,   -0.3,    2.4,    4.0,    5.2,    6.3,    8.0,    8.3,    6.5,    5.1,    6.7,    7.5,    7.9,  999.0,    6.9,  999.0,    3.9,    1.6,    0.1,   -0.5,   -0.9,   -1.5,   -1.5,  999.0,  999.0,  999.0,    2.4,    0.7,    0.6,    0.9,    0.9,    0.6,   -2.8,   -2.8,   -4.4,   -1.1,    0.8,    0.7,    0.5,    0.8,   -4.4,   -0.6,    0.8,    0.3,    0.7,    0.7,    0.5,    0.8,    0.3,    0.8,    1.1,    0.7,    0.8,    0.6,  999.0
2000/12/19 07:30,  999.0,   -0.7,   -0.1,    0.2,   -0.4,    1.8,    4.2,    5.6,    6.5,   10.0,    7.4,    4.3,    6.9,    7.9,    7.2,    8.1,    7.5,    7.1,    5.4,    4.2,    3.2,   -0.5,   -0.4,   -0.4,   -0.4,  999.0,   -3.5,   -3.9,  999.0,  999.0,  999.0,  999.0,   -7.7,  999.0,  999.0,  999.0,  999.0,  999.0,  999.0,   -9.7,   -9.2,  999.0,  999.0,  -10.5,   -8.9,   -6.7,  999.0,  999.0,  999.0,  999.0,  999.0,    0.3,  999.0,    1.2,    0.8,    0.0,    0.8,    1.3
2000/12/19 07:40,  999.0,    0.1,   -0.4,    0.1,   -0.2,    1.4,    2.7,    4.2,    5.8,    6.9,    7.4,    8.2,    6.9,    5.8,    3.6,    6.0,    3.9,    2.9,    0.1,   -1.5,   -2.6,   -2.8,   -3.0,   -3.0,  999.0,   -6.6,   -7.0,   -6.6,  999.0,  999.0,  999.0,   -8.0,   -6.8,    0.4,    0.9,    0.6,  999.0,  999.0,  -10.4,  -10.3,  999.0,  999.0,  999.0,  -10.5,   -9.1,   -8.1,  999.0,  999.0,    0.7,    0.7,    1.2,    0.7,    0.8,    0.9,    0.5,    0.9,    1.2,    1.4
2000/12/19 07:50,  999.0,  999.0,   -4.0,   -1.1,   -2.2,    0.3,    2.0,    3.8,    5.6,    7.1,    7.6,    6.4,    5.5,    4.9,    5.6,    6.2,    6.6,    6.3,    3.7,    1.9,    1.0,    0.6,   -0.6,   -1.2,   -3.4,   -5.4,   -6.7,   -9.4,  999.0,  999.0,  -12.4,  -12.4,  -10.9,  999.0,  999.0,  999.0,  999.0,   -9.2,   -8.8,   -9.5,  999.0,  -10.6,  -10.2,   -1.5,   -9.8,    5.5,   18.7,  999.0,   18.5,   13.8,   20.6,   10.6,    7.9,   19.2,    2.0,   14.4,   21.1,   21.8
2000/12/19 08:00,  999.0,   -0.9,   -2.0,   -3.5,   -1.5,    0.8,    2.0,    3.8,    5.4,    6.1,    7.3,    6.2,    6.2,    4.5,    5.5,    6.5,    7.7,    7.9,    5.8,    4.0,    3.3,    2.0,    1.5,    0.2,   -2.1,  999.0,   -4.4,   -5.6,   -6.2,  999.0,  -12.2,  999.0,   -8.6,  999.0,  999.0,  999.0,   -8.4,   -6.6,  999.0,  999.0,  999.0,  999.0,  999.0,   -3.4,  999.0,    0.6,    0.6,    0.7,    0.2,    0.7,    0.2,    0.6,    0.9,    0.8,    1.0,    0.8,    0.6,    0.7
2000/12/19 08:10,  999.0,   -0.9,   -2.8,   -2.6,   -0.3,   -0.5,    1.5,    3.6,    5.7,    7.0,    7.4,    6.2,    5.3,    5.8,    6.5,    7.3,    8.2,    7.7,    5.3,    4.0,    2.7,    2.2,    1.5,    0.3,    1.1,    8.3,  999.0,   -6.7,  999.0,  999.0,    1.1,    0.3,    1.0,    0.4,    0.6,    0.1,   -0.5,   -0.1,    0.9,    0.9,    0.7,    0.6,    1.3,    0.8,    0.5,    0.5,    0.6,  999.0,    0.6,    0.9,    0.6,    1.5,    1.0,    0.7,    0.4,    1.2,    1.0,    0.6
2000/12/19 08:20,  999.0,   -1.3,   -3.2,   -0.6,   -0.7,    0.7,    2.5,    4.3,    5.0,    6.1,    6.4,    6.0,    6.1,    6.8,    6.9,    6.6,    7.9,    6.4,    7.5,    2.4,    1.6,    1.3,    0.7,   -0.2,   -2.0,   -2.4,   -6.0,   -6.6,   -8.8,  999.0,  -10.1,  -10.0,  999.0,  999.0,  999.0,   -3.3,    1.0,  999.0,  -25.6,    1.3,    1.1,  -20.2,  999.0,  -41.4,    0.9,  -20.5,  -41.9,  -41.7,  -41.0,    0.9,    0.1,  -20.3,  -41.5,    0.8,  -20.4,  -20.5,  -41.1,  -41.8
2000/12/19 08:30,  999.0,  999.0,   -1.0,   -1.2,    0.1,    2.1,    2.7,    3.4,    4.8,    6.6,    7.0,    5.9,    5.7,    6.0,    6.4,    6.2,    5.7,    5.0,    6.2,    1.1,    0.2,   -0.2,   -0.3,   -2.5,   -3.5,   -4.0,   -4.9,   -5.0,   -5.4,   -9.4,  -12.6,  -10.9,  999.0,  999.0,  999.0,  999.0,  999.0,  999.0,  999.0,  999.0,  999.0,  999.0,  -41.7,  -42.2,  999.0,  -42.0,  -41.8,  -41.9,  -42.0,  -42.2,  -41.7,  -42.0,  -42.0,  -42.0,  -41.9,  -41.7,  -42.9,  -42.4
2000/12/19 08:40,  999.0,  999.0,  999.0,   -1.4,    0.6,    0.8,    0.9,    2.4,    4.0,    5.5,    5.9,    5.9,    5.6,    5.4,    5.3,    4.6,    8.7,  999.0,    0.3,   -0.1,   -0.9,   -1.7,   -1.3,   -3.2,   -4.5,   -5.1,  999.0,  -10.4,  999.0,  999.0,  999.0,  -11.6,  999.0,  999.0,  999.0,  999.0,  -31.8,  999.0,  -41.5,  999.0,  -41.8,  -41.8,  -42.0,  -41.5,  -42.3,  999.0,  -41.3,  -42.5,  -42.0,  -41.9,  -42.0,  -41.8,  -41.4,  -41.1,  -41.9,  -41.6,  -41.9,  -42.1
2000/12/19 08:50,  999.0,   -0.2,   -0.5,    0.9,    1.2,    1.2,    1.9,    3.0,    4.4,    5.2,    4.8,    5.4,    5.9,    5.9,    5.4,    5.8,    5.7,    4.9,   -0.5,   -0.3,    0.5,   -2.1,   -2.0,   -3.5,  999.0,  999.0,  999.0,  999.0,  999.0,  999.0,  999.0,  999.0,  999.0,  999.0,  999.0,  999.0,  999.0,  999.0,  999.0,  -41.5,  -41.6,  -41.8,  -41.9,  -42.3,  -41.8,  -41.9,  -41.9,  -42.2,  -42.1,  -42.4,  -41.7,  -41.9,  -41.8,  -41.1,  -42.2,  -42.0,  -41.9,  -42.4
2000/12/19 09:00,  999.0,  999.0,    0.3,    1.1,    2.0,    1.2,    2.3,    4.0,    5.5,    5.5,    5.2,    5.5,    6.2,    6.4,    7.3,    6.5,    4.7,    2.9,   -1.0,   -2.2,   -0.6,  999.0,  999.0,  999.0,  999.0,  999.0,  999.0,  999.0,    0.7,  999.0,    0.1,  999.0,    0.6,  999.0,  999.0,  999.0,    1.0,  -19.9,  -41.4,  -41.5,  -27.5,  -41.8,  -30.8,  -41.6,  -41.4,  -20.4,  -41.8,  -18.0,  -23.9,  -41.8,  -24.1,  -15.1,  -42.0,  -33.5,  -41.9,   21.0,  -42.0,    1.1
2000/12/19 09:10,  999.0,    0.3,    1.6,    1.4,    1.0,    1.2,    3.8,    5.4,    6.6,    7.2,    6.2,    6.1,    6.1,    6.5,    6.5,    7.4,    7.4,    5.6,    4.1,    3.5,  999.0,   -9.1,  999.0,  999.0,  999.0,  999.0,  999.0,  999.0,  -41.5,  999.0,  999.0,  -42.1,  -41.7,  -41.7,  -41.4,  -41.8,  999.0,  -29.1,  -30.8,  -21.3,  -35.4,  -41.9,  999.0,  -41.7,  -31.7,  -36.6,  -40.0,  -42.1,  -39.8,  -29.4,  -21.1,  -28.4,  -24.0,  -42.2,  -42.3,   -2.3,  -41.3,  -22.0
2000/12/19 09:20,  999.0,    0.7,   -1.0,   -0.4,    0.5,    2.0,    3.2,    4.8,    5.9,    7.1,    5.9,    5.4,    5.1,    5.7,    6.7,    7.3,    7.1,    5.5,    3.9,    3.6,    3.4,   -1.7,  999.0,    9.5,    9.4,  999.0,  999.0,  999.0,  999.0,   26.6,  999.0,  999.0,  999.0,  999.0,  999.0,   -4.2,  999.0,  -30.5,  -21.2,  -28.4,  -41.5,  -26.2,  999.0,  -32.6,  -25.4,  -20.2,  -38.1,  -20.4,  -41.5,  -31.0,  -20.8,  -22.0,  -20.2,  -30.8,  -41.5,  -20.5,  -20.9,  -21.4
2000/12/19 09:30,  999.0,    2.0,    0.5,    1.2,    1.9,    1.4,    2.5,    4.3,    5.7,    6.7,    5.9,    5.3,    4.9,    5.4,    6.3,    5.8,    5.0,    5.6,   -2.0,   -2.1,    0.2,   -3.7,   -4.3,  -11.6,  -11.0,  -10.4,  999.0,  999.0,  -10.9,  -10.8,  999.0,  999.0,  999.0,  999.0,  999.0,    0.8,   -0.1,    0.2,  999.0,  -39.3,  999.0,  -20.2,  -42.1,  999.0,  -42.1,  999.0,  999.0,  -41.9,  -42.1,  -20.5,  -41.7,  -41.7,  -41.5,  -27.6,  -20.3,  -27.8,  -27.7,  -41.7
2000/12/19 09:40,  999.0,   -0.4,    0.4,   -0.3,    3.2,    1.7,    2.3,    2.3,    3.1,    5.3,    4.8,    3.9,    3.3,    3.7,    3.4,    5.5,    5.5,    4.9,    4.5,    7.7,  999.0,   -7.5,  999.0,  999.0,   -9.6,  999.0,  999.0,  999.0,  999.0,  999.0,  999.0,   -8.5,  999.0,  999.0,  999.0,  999.0,  -30.2,  999.0,  999.0,  999.0,  -41.7,  999.0,  -41.5,  -42.1,  -16.9,  -38.1,  -41.7,  -21.4,  -24.0,  -33.2,  -25.5,  -40.4,  -41.5,  -41.8,  -41.2,  -41.6,  -31.9,  999.0
2000/12/19 09:50,  999.0,    7.8,    6.7,    6.8,   -1.1,    0.4,    2.6,    3.3,    3.3,    4.8,    4.4,    4.1,    3.9,    4.0,    4.1,    3.7,    2.5,    0.6,  999.0,   -3.2,   -2.9,   -6.5,   -6.5,  999.0,   -8.4,  999.0,  999.0,  999.0,    1.1,    0.5,  999.0,  999.0,  999.0,    1.0,  999.0,    1.0,  999.0,  -41.7,  -27.4,  -41.6,  -23.9,  -23.9,  -19.9,  -41.4,  -21.1,  -25.2,  -14.2,  -42.0,  -29.7,  -23.0,  -27.2,  -30.8,  -20.1,  -41.3,  -27.8,  -41.6,  -34.7,  -41.5
2000/12/19 10:00,   -2.6,   -0.0,    2.9,    1.5,   -0.3,    2.4,    2.9,    3.1,    8.2,    6.9,    5.0,    7.0,    8.1,    7.1,    7.6,    7.0,    7.6,    6.6,  999.0,   20.4,  999.0,  999.0,   -9.0,  999.0,   31.4,  999.0,  999.0,  999.0,  999.0,  999.0,  999.0,  999.0,  999.0,   -9.6,  999.0,    0.7,  999.0,  -42.2,  -15.1,  -42.9,  999.0,  -41.9,  -41.6,  -41.6,    0.2,  -20.4,  -20.9,  -20.8,  -41.8,  -41.5,  -20.5,  -41.4,  -18.0,  -20.5,  -21.0,  -20.6,  -41.8,  -41.5
2000/12/19 10:10,  999.0,    2.9,    4.3,    2.2,    3.3,    3.2,    2.6,    3.2,    3.7,    4.0,    6.1,    5.9,    5.0,    5.1,    5.6,    5.5,    4.1,    2.1,   -0.0,   -0.8,   -3.4,   -7.7,   -5.8,  999.0,  -10.4,   -7.8,  -10.8,   -4.1,  999.0,  999.0,  999.0,  999.0,  999.0,  999.0,  999.0,  999.0,  999.0,  999.0,  999.0,  999.0,  999.0,  999.0,  999.0,  999.0,  999.0,  999.0,  999.0,  999.0,  999.0,  999.0,  999.0,  999.0,  999.0,  999.0,  999.0,  999.0,  999.0,  -42.1
2000/12/19 10:20,   21.8,    2.7,    3.8,    4.4,    4.3,    4.7,    5.3,    4.8,    5.1,    7.1,    9.0,   10.0,    9.5,    9.0,   10.7,   14.7,   17.2,   18.1,   27.0,   29.4,   29.2,   29.8,   30.0,  999.0,   35.4,   35.9,   40.5,    1.7,  999.0,  999.0,   42.3,   42.1,   29.7,   31.6,   42.6,   34.8,  999.0,    9.9,   20.8,   20.7,   36.5,  999.0,   10.4,   41.6,   27.5,    8.0,   41.9,   16.2,   34.0,   20.3,  999.0,   -1.2,   42.3,  999.0,   42.1,   42.0,   -1.3,   20.4
2000/12/19 10:30,   23.2,   15.2,   10.0,    0.8,    0.1,    3.4,    3.0,    2.7,    3.9,    5.3,    6.8,    5.7,    4.8,    5.1,    5.9,    9.4,   12.6,   11.2,   12.3,   12.2,   11.5,    3.3,    0.4,    0.6,    1.0,   18.7,   16.4,   37.1,    0.1,   21.4,   41.2,   31.4,   31.5,   41.8,   22.5,   28.2,   30.0,   31.0,   22.5,   38.6,   41.8,  999.0,   41.8,   41.2,   41.3,  999.0,   41.3,  999.0,   42.0,   42.2,   41.7,   20.7,   20.1,   35.1,   34.7,   34.4,   41.8,   41.5
2000/12/19 10:40,   27.6,   18.3,   13.8,   10.2,    6.8,    6.8,    3.4,    1.3,    3.0,    6.0,    6.0,    5.5,    5.1,    5.0,    5.7,    5.7,    7.2,    9.7,   13.6,   16.3,   28.8,   21.2,   21.8,  999.0,  999.0,  999.0,   41.8,   42.0,   40.5,   41.7,   41.7,   41.3,   41.9,   42.1,   42.0,   41.8,   41.7,   42.1,   41.9,   42.2,   41.7,   41.9,   41.7,   42.3,   36.3,   41.3,   41.9,   42.2,   41.9,   41.9,   41.7,   41.9,   42.0,   42.0,   41.9,   42.0,   41.3,   35.3
2000/12/19 10:50,   15.8,   10.3,    6.5,    5.4,    2.6,    2.4,    3.0,    3.4,    3.0,    5.2,    6.1,    5.6,    4.4,    3.7,    5.8,    6.8,    7.9,    8.9,   11.4,    8.6,    9.0,  999.0,   29.3,  999.0,  999.0,   32.6,   31.6,   35.8,   39.3,   41.4,   41.7,   42.3,   41.7,   42.1,   41.8,   42.2,   42.2,   41.7,  999.0,   41.7,   42.1,   41.6,   42.1,   41.7,   41.6,  999.0,  999.0,   41.5,   13.0,   20.4,   19.0,    8.5,   -0.4,    0.2,  -38.9,   19.5,   13.8,   42.1
2000/12/19 11:00,  999.0,    4.5,    2.0,    3.4,    1.2,    1.0,    1.0,    1.3,    3.6,    5.9,    6.5,    6.0,    5.1,    4.9,    5.2,    6.4,    6.9,    7.1,    6.2,    5.4,    5.1,    2.7,    2.6,  999.0,  999.0,  999.0,  999.0,  999.0,  999.0,    6.4,    5.5,    4.0,    1.8,    2.7,    1.0,    1.2,    0.6,    0.3,    0.4,  999.0,    0.8,  999.0,    0.9,    0.4,  999.0,  999.0,  999.0,  999.0,  999.0,  999.0,  999.0,  999.0,  999.0,  999.0,  999.0,  999.0,  999.0,  999.0
2000/12/19 11:10,  999.0,    4.1,    3.4,    3.2,    0.9,    2.1,    1.9,    2.4,    2.4,    3.3,    4.6,    4.8,    4.2,    4.9,    5.1,    5.9,    7.1,    8.1,    7.8,    7.8,  999.0,    3.4,   16.1,   31.1,   33.0,  999.0,   18.8,  999.0,   39.7,   41.3,   41.6,   42.0,  999.0,   41.5,   41.7,   41.5,  999.0,   -0.3,   -0.0,  999.0,    0.2,  -41.7,   41.3,   -0.1,    0.2,  999.0,   -0.1,   -0.3,   -0.3,   41.3,   41.2,    0.0,  -42.0,   -0.6,   41.3,   41.7,   41.7,   -0.1
2000/12/19 11:20,  999.0,    3.3,    3.0,    4.3,    4.2,    3.2,    3.2,    2.7,    2.4,    2.6,    1.6,    1.7,    3.6,    3.9,    2.8,    0.2,   -1.3,   -1.1,   -1.0,    0.1,  999.0,  999.0,  999.0,  999.0,  999.0,  999.0,   21.6,    1.1,   42.4,   42.5,   42.1,   41.7,   41.8,   21.0,    1.0,    0.7,   21.6,    1.0,   21.5,  999.0,   42.2,   41.8,   21.5,    0.8,    1.2,    0.4,   21.4,    0.7,   21.5,   21.5,   21.8,    1.1,   42.4,  999.0,   10.9,   41.8,   42.4,    0.7
2000/12/19 11:30,  999.0,    1.4,    3.5,    3.9,    3.6,    2.9,    2.0,    1.3,    2.3,    3.2,    3.5,    3.3,    4.0,    4.5,    5.3,    6.1,    6.7,    7.6,    7.6,    9.5,  999.0,  999.0,    5.4,   17.9,  999.0,  999.0,  999.0,  999.0,  999.0,  999.0,  999.0,  999.0,  999.0,  999.0,  999.0,  999.0,  999.0,   -1.0,   -1.3,   -0.7,   -0.7,   -1.0,  999.0,   -0.9,   -0.5,  -15.4,  -41.8,  -36.8,  -18.5,   -8.5,   -2.8,  -12.5,  -21.2,  -21.9,  999.0,  999.0,  999.0,  -41.4
2000/12/19 11:40,  999.0,    2.8,    4.1,    3.4,    2.4,    3.7,    3.4,    2.6,    1.3,    2.1,    3.9,    2.2,    3.4,    5.1,    6.9,    8.4,    9.4,    9.9,    9.5,   13.8,   13.4,  999.0,   -8.5,  -10.0,  999.0,    1.0,    1.2,   21.7,   21.4,   42.4,  999.0,   13.3,   29.6,   39.6,    0.9,   13.9,    1.0,    0.9,  -38.9,  -16.1,  -42.1,  -24.0,  999.0,  -26.1,  -27.4,  -40.8,  -31.7,    0.9,  -21.4,  -34.2,  -38.2,  -16.1,  -18.8,  -31.5,    1.1,  -42.3,  -27.8,  -10.8
2000/12/19 11:50,  999.0,    3.3,    4.2,    5.1,    4.4,    4.0,    3.4,    3.0,    2.9,    2.5,    2.7,    3.0,    3.4,    4.5,    5.1,    5.6,    5.4,    5.0,    4.9,    4.6,    8.4,    8.2,    7.1,   -3.1,  999.0,  999.0,  999.0,    0.7,    0.5,  999.0,   32.8,  999.0,    1.1,  999.0,    1.0,  999.0,    2.8,  -19.5,  -42.0,  -42.3,   -8.7,   13.5,  -20.9,  -16.5,   -5.6,   -6.6,  -40.7,  -25.1,  -20.4,  -14.7,  -20.5,  999.0,  -21.1,  -12.0,  999.0,  -20.6,  999.0,   -0.2
2000/12/19 12:00,  999.0,    1.4,  999.0,  999.0,    4.6,    4.0,    1.5,    0.8,    1.7,    2.2,    1.9,    1.8,    3.1,    4.0,    4.9,    5.4,    5.0,    4.4,    3.8,    2.6,    6.1,  999.0,  999.0,  -10.2,  999.0,  999.0,  999.0,  999.0,  999.0,  999.0,  -11.8,  999.0,  999.0,  999.0,  999.0,  999.0,  999.0,  -42.4,  999.0,  999.0,  -42.6,  -42.8,  999.0,  -42.5,  999.0,  999.0,  999.0,  999.0,  999.0,  999.0,  999.0,  999.0,  999.0,  999.0,  999.0,  999.0,  999.0,  999.0
2000/12/19 12:10,  999.0,    2.9,    6.5,    5.9,    6.4,    3.6,    2.8,    2.0,    2.6,    2.5,    2.1,    2.5,    3.4,    4.3,    4.8,    5.7,    5.9,    8.2,    7.4,   -2.2,    8.9,   30.0,   20.4,   20.0,    8.3,   21.4,   19.3,   18.8,   27.9,   18.7,   27.2,    6.4,   17.8,   18.0,   21.7,    8.8,    4.6,   16.7,   21.4,   24.2,   16.0,   15.7,   14.6,   12.3,    1.5,   10.0,    4.9,    2.4,    0.8,    0.9,    0.7,    0.6,    1.1,    0.8,    1.0,    0.4,    1.0,    0.8
2000/12/19 12:20,  999.0,    3.6,    4.6,    2.8,    3.9,    0.9,    3.4,    1.8,    2.3,    3.6,    3.9,    4.2,    3.7,    3.3,    4.2,    4.8,    4.6,    3.5,    1.5,    0.9,   -1.3,  999.0,  999.0,    0.5,    0.6,   -6.6,    0.9,    0.5,    0.9,    0.7,    1.0,    0.5,    1.2,    1.1,    1.0,    0.8,    0.7,   -6.4,    0.8,    0.8,  -20.7,  -10.3,  -21.2,  -20.6,  -20.3,  -41.5,  -20.5,  -42.2,  999.0,  -20.2,  -27.7,    1.1,  -27.6,  -20.8,  -20.5,  -20.5,  -13.2,  -41.5
2000/12/19 12:30,  999.0,    7.7,   -2.1,    0.3,    0.9,    0.9,    2.9,    3.2,    3.4,    3.0,    1.8,    1.5,    2.2,    2.1,    2.8,    3.2,    3.7,    6.7,    7.3,   10.8,   13.7,   25.1,   13.1,   30.2,   21.6,   31.3,   11.3,    7.7,    1.2,   20.3,    9.3,   18.0,   19.3,   10.7,   11.1,    7.5,   14.8,   19.8,   17.9,   19.4,   21.3,   26.1,    6.1,   10.5,   10.0,   18.8,    0.3,   18.3,   12.7,   13.3,   -2.0,    8.5,   11.3,   12.8,   20.7,   20.9,    1.2,    8.0
2000/12/19 12:40,  999.0,    3.2,    7.2,   10.1,    8.4,    8.6,    5.1,    7.3,    4.3,    0.7,    4.5,    2.6,    1.7,    0.6,    0.2,    0.9,  999.0,  999.0,    8.4,   13.1,   10.3,   10.2,    8.4,  999.0,  999.0,   34.8,   35.1,   12.7,  999.0,   41.4,   16.0,   29.9,   21.8,   22.2,   18.7,  -20.3,    0.3,   -9.8,  -41.0,   19.1,   -5.4,    0.5,   20.2,   25.8,   15.0,   13.7,   14.8,  999.0,    6.2,  999.0,    0.5,    1.2,    0.6,    1.4,  -12.7,   -0.4,    2.4,   -8.2
2000/12/19 12:50,  999.0,    2.7,   -2.4,    4.1,    3.7,   -0.0,    1.5,    0.6,    0.1,    4.0,    5.2,    5.3,    3.1,    3.6,    2.0,    2.2,    7.7,   12.6,   10.9,   -0.2,   16.6,   22.8,   23.4,   30.3,  999.0,   39.8,   31.5,   24.0,   11.9,  999.0,   14.7,   11.0,  999.0,    7.7,    0.4,   15.6,   16.2,   -0.6,   21.2,   11.9,    1.5,   31.4,   20.3,   19.0,    8.2,   13.7,    9.1,   11.1,   16.0,   26.4,   33.9,   20.9,   23.9,   19.1,   31.7,   34.5,    0.3,    0.3
2000/12/19 13:00,  999.0,    0.3,   -0.3,    1.3,   -0.3,   -0.4,   -0.0,    0.2,    0.4,    0.4,    1.3,    1.7,    2.3,    2.6,    2.8,    2.2,    0.6,   -0.4,   -1.3,    0.1,   -5.4,   -5.6,   -5.5,   -5.4,  999.0,  999.0,   13.9,   24.2,   28.5,   36.1,   27.3,   35.2,   20.8,   33.7,   35.6,   27.3,   26.0,    4.2,   39.4,   41.3,   20.8,   42.4,   31.7,   21.1,   31.6,   42.3,  999.0,  999.0,   42.1,   42.2,  999.0,   42.2,   29.5,  999.0,  999.0,  999.0,   42.0,   42.2
2000/12/19 13:10,  999.0,    3.5,    2.6,    1.5,    4.1,    0.1,    1.9,    1.5,    1.8,    2.4,    2.3,    1.6,    1.8,    2.0,    2.2,    3.0,    3.5,    4.4,    5.7,    5.5,    4.4,    4.0,    3.7,    6.3,  999.0,    5.5,    3.4,    4.2,    0.1,    1.2,    0.7,    3.5,  999.0,    0.7,    0.7,    0.8,    1.1,    1.0,    1.2,   -4.8,    1.9,   -4.4,   10.4,    2.2,   -2.5,  999.0,   16.9,   20.4,   42.4,    0.5,   42.4,   41.9,   20.9,  999.0,   21.4,   21.5,   41.7,    1.2
2000/12/19 13:20,  999.0,   -1.0,  999.0,    3.4,    0.6,   -1.3,   -0.1,    2.1,    2.1,    2.3,    3.0,    4.8,    3.5,    4.3,    3.0,    3.7,    4.2,    4.2,    3.3,    1.9,    1.3,    0.7,    0.9,  999.0,  999.0,  999.0,   40.9,   41.3,   42.8,   42.4,   10.1,   -0.5,   10.2,   10.3,   -1.1,   21.6,  -21.1,  -13.7,  -10.5,  -13.7,  -20.7,   21.3,   -0.1,    0.5,   42.0,  -20.0,   41.9,  -16.0,  -42.2,  -41.9,   31.7,    7.1,    5.5,  -41.5,   -5.7,    6.8,    7.2,   41.4
2000/12/19 13:30,  999.0,    1.2,    1.1,    1.0,    0.6,    0.2,   -0.4,   -0.2,    0.6,    0.6,   -0.0,    1.1,    1.3,    2.3,    3.8,    3.7,    3.7,    3.0,    2.8,    3.2,    2.4,    1.2,    1.8,  999.0,  999.0,  999.0,  999.0,  999.0,  999.0,  -17.3,    0.1,  -37.4,  -38.1,  999.0,  -40.5,  -21.1,  -41.9,  -27.8,   -0.8,  -21.3,  -41.8,  999.0,   -0.9,  999.0,  -21.2,  -41.4,  -41.9,  -41.7,  -41.7,  999.0,  -41.6,  999.0,  -41.4,  -42.0,  -42.0,  999.0,  -20.9,  -41.5
2000/12/19 13:40,  999.0,    2.9,    0.8,   -0.9,   -2.2,   -0.1,   -1.2,   -2.6,   -4.8,   -6.6,   -2.6,    0.3,    1.3,    1.8,    2.2,    3.0,    4.5,    7.3,   12.6,   18.8,   22.9,   31.0,   28.4,  999.0,   41.9,   41.9,   41.9,   41.7,   35.1,   28.6,   21.5,   31.1,   34.2,   32.0,   32.1,   22.7,   30.6,   33.5,   31.0,   41.8,   33.0,   31.3,   33.8,   34.9,   36.5,   33.0,   21.7,   23.2,   26.5,   14.5,   15.2,   21.3,   20.5,   42.2,    1.4,   21.1,   21.5,   14.4
2000/12/19 13:50,  999.0,    2.0,   -5.6,   -0.7,    5.1,    0.6,   -1.4,   -0.8,   -1.2,    2.2,   -3.4,   -4.2,   -3.3,    0.5,    2.3,    2.8,    2.2,    1.3,    2.0,    2.1,    4.3,    4.5,    5.8,    9.3,   11.8,   41.1,   15.8,   24.2,   24.1,   17.4,   28.5,   23.7,   23.2,    4.0,   20.7,   38.8,   19.4,   34.2,  999.0,   20.1,   18.1,    5.7,   14.6,   14.9,   14.8,   21.8,    0.9,   14.3,   21.2,   21.2,   13.0,    7.3,    7.6,    7.2,    1.7,    7.8,    7.8,    7.8
2000/12/19 14:00,  999.0,    4.2,    2.4,    2.5,    2.5,    2.6,    2.7,    3.9,    4.9,    5.7,    7.2,    2.7,    2.9,    3.0,    1.8,    5.2,    8.8,    7.3,    7.6,    9.1,    9.2,   14.1,   25.3,   32.5,   33.1,   23.7,   15.0,   16.3,   39.3,   30.0,   28.1,   28.0,   39.1,   42.0,   34.9,   31.5,   35.0,   34.9,   31.7,   35.0,   33.0,   31.8,   31.6,   23.5,   42.0,   41.9,   41.7,   41.9,   41.9,   41.7,   42.1,   41.8,   41.9,   41.8,   42.2,   42.0,   35.0,   31.8
2000/12/19 14:10,  999.0,    6.2,    3.7,    2.6,    3.1,    1.0,    0.5,    0.0,    1.2,    2.1,    1.6,    1.0,    0.3,    0.4,    1.0,    0.7,    3.1,    3.9,    4.6,   10.6,   10.4,   13.9,   12.4,   12.1,    1.6,   21.4,   22.1,   15.2,   15.6,   16.2,   15.5,   22.1,   14.6,    8.8,   26.1,   41.7,   42.0,   21.9,   42.2,   37.8,   34.6,   17.6,   36.9,   41.9,   42.1,   42.3,   34.7,   42.1,   42.0,   41.8,   42.0,   37.9,   31.6,   42.2,   35.2,   20.8,   28.0,   41.4
2000/12/19 14:20,  999.0,    1.6,    1.0,    1.2,    0.2,   -1.6,    0.3,    0.4,   -4.5,   -1.5,   -2.7,   -5.7,  999.0,   -9.4,   -3.7,    2.9,   -1.9,   -1.3,   10.9,    8.2,   11.5,   14.2,   22.1,   18.4,   19.2,   24.8,   19.2,   24.0,   19.5,   22.4,   28.9,   29.7,   30.8,   21.2,   16.2,   17.7,   18.1,   11.0,    9.0,    0.9,    0.6,    4.3,    7.5,   10.3,    0.4,    7.5,    0.4,   11.8,   12.8,    7.6,    9.6,   17.5,    0.1,   20.7,   14.4,   10.9,   14.5,   10.3
2000/12/19 14:30,  999.0,    1.0,    3.6,    4.7,    0.5,   -2.3,   -2.7,   -5.1,   -3.3,   -1.2,   -1.1,   -3.2,   -2.7,   -1.9,   -0.6,    0.8,    1.0,   -1.0,    1.1,   -2.5,    5.6,    0.6,   17.1,   10.7,   11.4,   15.2,   10.0,    9.5,    9.3,    9.3,    8.5,    9.8,   21.9,    9.2,   10.7,    0.8,   14.0,    5.9,    9.1,   21.3,   14.6,   10.8,    7.6,    8.0,   11.2,    7.6,   10.0,   12.7,    5.7,    2.1,   10.9,   11.5,    9.5,   11.1,   13.2,   21.1,   21.1,   21.0
2000/12/19 14:40,  999.0,    5.4,    3.5,    3.5,    3.6,    3.0,    1.5,    1.2,    0.5,    1.4,    1.7,    1.1,    1.0,    0.7,    1.9,    3.2,    3.7,    4.3,    4.2,    9.8,    7.3,    4.3,   21.3,   12.0,   18.4,   12.5,   13.0,   13.7,   27.0,   21.8,    1.6,   14.6,   21.3,    8.6,   26.0,   16.3,   21.0,   20.7,   31.6,   17.6,   21.7,   14.6,   21.2,   26.3,   16.2,    6.1,   11.9,   22.3,   21.2,   20.6,   17.1,    2.0,   19.6,   23.8,   28.5,   28.2,   28.0,   21.1
2000/12/19 14:50,   -1.8,    4.7,    3.2,    5.1,    4.4,    3.7,    2.3,    3.5,    3.0,    2.4,    2.1,    1.9,    2.3,    2.7,    2.8,    2.8,    3.5,   12.8,   14.3,   14.4,   11.5,   25.2,   21.0,    4.4,    1.5,    1.5,   11.1,   11.4,    1.3,    9.6,   20.0,    3.0,    0.6,   10.9,    7.6,    2.4,   -4.4,   10.3,  -20.3,   -9.6,   -1.3,  -11.6,    0.8,   -6.6,   -5.7,  -20.8,   -8.1,   -6.7,   -8.5,  -11.7,   13.4,   -1.8,    1.8,    0.4,   21.3,    0.5,   21.1,   10.6
2000/12/19 15:00,   -6.5,   -0.9,    1.7,    2.4,    2.8,    2.7,    3.2,    2.0,    2.1,    2.5,    2.6,    3.0,    2.8,    2.0,    1.0,    1.3,    0.2,  999.0,  999.0,  999.0,  999.0,  999.0,    1.6,    0.7,    0.5,    0.9,    0.8,    0.5,    1.0,    0.9,    0.6,    0.6,    0.5,    0.9,    0.7,    0.7,    0.5,    0.8,    0.8,    0.7,    0.6,    0.8,   -0.4,    0.8,    0.7,    0.6,    0.7,    1.3,    0.7,    0.9,    1.0,    0.8,    1.2,    0.4,    0.6,    0.8,    0.8,    0.6
2000/12/19 15:10,  -13.9,   -4.6,    1.5,    5.2,    5.3,    3.9,    2.9,    3.7,    3.2,    2.7,    2.1,    2.1,    2.6,    2.7,    2.5,    1.8,    0.8,    0.3,   -0.9,  999.0,  -37.2,  -39.3,    1.4,  -12.0,    1.1,    0.7,  -20.4,    0.9,    0.9,    1.0,  -13.4,    1.2,  -41.7,   -6.7,   -6.6,    0.6,    1.0,   -6.0,  -10.1,  -13.6,  -20.6,    1.1,    0.8,    0.8,    0.7,  -13.6,   -6.1,  -13.5,  -10.0,   -6.3,    0.8,  -21.2,  -13.7,  -20.5,   -6.2,    0.8,  -13.3,   -6.0
2000/12/19 15:20,  -19.6,   -8.1,   -1.1,    6.4,    4.4,    5.0,    5.2,    4.9,    3.5,   -1.1,    2.7,    2.3,    1.7,    2.7,    3.7,    4.9,    9.4,   11.4,    8.8,  999.0,   29.3,   29.9,  999.0,    1.0,   21.1,   18.1,   41.6,   42.5,   15.1,   21.2,   21.3,   21.1,   -0.1,   10.7,    0.9,    0.6,   10.4,   20.7,    0.2,   10.6,   10.4,   10.7,   21.4,   10.7,   -0.1,   -0.1,   10.7,   10.4,   20.6,   20.6,   21.0,  999.0,   -0.2,   -0.1,   10.2,   21.3,   21.2,   21.2
2000/12/19 15:30,  -13.7,  999.0,    4.5,    1.4,    4.5,    3.9,    4.4,    4.9,    3.4,    2.7,    2.3,    2.0,    1.2,   -1.1,   -3.2,   -3.6,   -7.4,   -1.1,   -0.7,   -6.1,   -6.6,   -7.5,    0.7,    2.8,    0.9,    0.7,    0.5,    0.9,    0.4,    0.9,    0.7,    0.6,    0.8,    0.5,    0.8,    1.6,    2.6,    1.0,    3.8,    4.6,    7.0,   10.3,   10.0,   16.9,   18.7,   42.0,   23.3,   24.1,   21.3,   25.0,   26.5,   26.9,   27.6,   21.6,   28.3,   28.2,   28.4,   21.2
2000/12/19 15:40,   -0.7,    2.0,    2.6,    1.5,    1.7,    3.4,    5.2,    4.9,    3.8,    2.9,    0.9,    1.7,    2.8,    4.3,    6.1,    7.2,   12.0,    6.1,    5.0,    3.4,    0.1,   -3.2,  999.0,  999.0,  999.0,   26.7,    0.7,    0.8,    1.0,   14.3,   21.0,   14.7,   10.1,    2.4,   10.4,   21.2,   10.6,   11.4,   20.3,   14.9,   15.5,   17.8,   26.7,   20.9,   31.4,   25.9,   12.3,   20.2,   28.6,   27.3,   31.7,   33.3,   42.1,   27.8,   27.6,   35.0,   34.9,   20.1
2000/12/19 15:50,   -6.5,    8.6,    6.3,    7.0,    7.7,    7.2,    6.3,    6.8,    5.7,    5.0,    3.2,    2.4,    0.9,    0.2,    2.7,    0.8,   -0.7,    2.0,    2.7,    1.4,    3.3,    5.1,  999.0,  999.0,    9.7,   17.0,   17.3,   16.6,  999.0,   20.0,   25.2,   17.3,   25.8,   26.7,   27.0,   27.5,   21.1,   14.0,   28.6,   13.7,   -1.2,   21.0,   21.2,   20.6,   14.2,   10.6,   14.0,   20.8,   21.1,   20.1,   42.0,   21.2,   41.7,    4.6,   42.1,   41.2,   41.9,   42.0
2000/12/19 16:00,  -11.0,    1.9,    3.4,    4.6,    5.4,    5.2,    6.2,    5.2,    4.4,    3.0,    3.1,    2.9,    1.9,    2.9,    5.1,    2.1,    2.9,    4.0,    3.7,   -5.4,   -1.5,  999.0,  999.0,  -42.2,  -42.4,  999.0,   -4.2,  -41.8,  -41.9,   -0.8,  -20.9,   -5.7,   16.6,   12.3,  -18.0,  -20.6,  -20.6,   -8.8,   -9.9,   -8.7,    0.1,  -11.0,   -0.4,   18.3,    0.1,  -18.2,   -3.9,   -2.2,  -28.2,   -1.7,   14.4,    1.6,  -13.2,    5.6,    0.1,  -20.8,   -7.2,   -6.9
2000/12/19 16:10,  999.0,   -4.1,    1.3,    9.0,    8.2,    7.3,    5.8,    4.5,    3.6,    3.6,    3.1,    1.9,    1.7,    1.8,    1.9,    1.7,   -2.1,    2.4,    0.8,    5.4,   -7.5,    3.4,  999.0,  999.0,   19.6,   -4.6,    1.1,   20.9,    6.0,    2.2,    9.8,    2.1,   17.5,    5.5,   15.7,    0.7,  -17.1,   17.5,  -10.3,   21.2,   10.6,  -17.6,  -12.8,  -11.7,  -23.8,    5.3,  -25.1,  -18.6,  -15.5,  -20.7,   21.3,  -20.5,   -8.5,  -41.6,  -41.6,   -3.3,   38.7,  -14.1
2000/12/19 16:20,  999.0,  999.0,    8.7,    8.3,    7.2,    7.5,    6.9,    5.4,    3.4,    2.9,    2.2,    1.1,    4.6,    5.1,    5.4,   12.0,    7.9,    3.0,    3.7,    5.0,    9.4,   14.0,   21.7,  999.0,  999.0,  999.0,  999.0,   16.3,  999.0,   -0.9,   -1.1,   -1.3,   -1.1,   -0.7,   -8.0,  -10.9,   -7.1,   -2.1,   -0.6,   -0.9,   -0.8,   -0.1,   -0.6,   -1.3,   -1.2,   -0.8,   -0.2,   -1.0,   -0.4,   -0.2,   -0.6,   -0.5,   -0.6,   20.6,  999.0,   20.4,   27.6,   27.7
2000/12/19 16:30,   -4.2,    3.0,    8.2,    8.5,    5.0,  999.0,    1.3,    0.1,   -1.4,   -2.3,   -3.1,   -1.9,   10.6,   -3.3,    0.2,    0.6,    6.7,   -0.6,  999.0,  999.0,   25.6,   10.3,  999.0,   33.7,   35.2,   37.2,   39.7,   41.4,   40.4,   41.0,   41.9,  999.0,   31.1,   31.1,   42.1,   31.4,   20.9,   20.7,   42.3,   31.1,   41.9,   20.7,   41.8,   42.0,   41.9,   41.8,   41.8,   42.5,   42.1,   41.6,   41.5,   42.1,  999.0,   41.9,   42.0,   42.3,   42.2,   42.0
2000/12/19 16:40,   -4.0,    8.6,    9.4,    9.3,    9.0,    5.6,    1.9,    0.1,    0.8,    0.6,    0.6,    0.9,    3.1,   10.9,   11.4,  999.0,    6.2,  999.0,   22.0,  999.0,   21.6,   28.1,  999.0,   40.0,   39.2,   33.1,   27.3,   31.5,   34.6,   35.0,   35.0,   40.3,   35.8,   39.5,   26.4,   36.0,   32.6,   27.7,   30.7,   36.3,   41.3,   36.5,   40.0,   41.5,   32.1,   27.9,   21.1,   29.8,   34.8,   35.0,   34.9,   35.3,   37.3,   39.8,   41.7,   41.7,   41.8,   35.1
2000/12/19 16:50,   -7.2,    1.0,    7.8,    9.5,    5.0,    3.9,    1.2,    0.7,   -2.8,    3.6,    6.6,    7.0,   12.5,   10.9,   12.0,   12.2,    8.9,   10.1,    8.4,    8.7,    8.4,   16.6,  999.0,   42.1,   41.9,   42.0,   42.1,   42.3,   41.5,   42.9,   42.2,   42.5,   42.5,   41.7,   38.2,   35.7,   40.0,   29.0,   27.8,   34.6,   37.0,   37.0,   36.6,   42.2,   41.8,   41.8,  999.0,   21.6,   21.1,   39.7,   17.2,    1.0,   13.2,   11.7,   20.6,  999.0,    6.4,    4.6
2000/12/19 17:00,  -13.8,  999.0,  999.0,  999.0,    6.4,    3.1,    1.0,    5.6,    0.6,   -0.1,    0.6,    2.3,    2.7,    6.1,    8.1,    4.0,    6.0,   27.0,  999.0,  999.0,  999.0,  999.0,  999.0,   26.2,   27.2,   34.4,   42.3,   41.6,   42.2,   42.2,   42.2,   41.9,   42.2,   41.8,   41.9,   42.3,   42.0,   41.9,   42.1,   41.9,   41.9,   41.7,   41.9,   42.1,   42.2,   42.1,   41.9,   41.4,   41.9,   42.4,  999.0,   42.2,   42.1,   42.2,   42.1,   42.0,   42.1,   41.6
2000/12/19 17:10,   -6.0,    6.2,    6.1,    8.8,    7.3,    5.6,    4.0,    2.1,    0.5,    2.6,    2.5,    2.7,    2.3,    2.6,    4.7,    5.4,    9.0,  999.0,  999.0,  999.0,  999.0,  999.0,  999.0,   40.9,   41.2,   41.7,   41.8,   41.8,   42.1,   42.3,   29.9,   30.2,   18.3,   21.1,   25.2,   41.7,   41.2,   41.6,   29.6,   30.8,   41.6,   41.9,   42.0,   41.8,   27.7,   13.5,   23.1,   25.1,   20.0,   20.4,   31.1,   34.9,   27.6,   27.9,   41.7,   31.1,   41.9,   27.6
2000/12/19 17:20,  -13.4,    2.4,  999.0,  999.0,    6.6,    5.4,    5.0,    4.7,    1.5,    1.4,    1.2,    1.0,    1.0,   -0.2,   -0.2,    0.3,   -6.3,  999.0,    5.8,   -2.8,    0.0,  999.0,    9.5,   25.1,    6.2,   18.6,   36.8,   32.0,   36.3,   34.2,   31.7,   38.6,   41.6,   41.7,   41.7,   34.8,   34.8,   42.1,   31.2,   42.0,   41.9,   27.7,   31.1,   41.9,   34.7,   41.7,   20.5,   27.6,   27.6,   27.4,   34.9,   34.7,   27.6,   27.4,   41.8,   20.8,   20.9,   31.3
2000/12/19 17:30,  999.0,    4.5,    6.9,    8.0,    6.8,    6.4,    6.0,    4.2,    3.3,    4.2,    2.2,    1.7,    1.1,   -0.2,   -0.9,    0.1,   -1.7,  999.0,  999.0,  999.0,  999.0,   22.2,   23.1,   12.8,   17.9,   14.7,   20.1,   15.8,   14.9,   22.9,    9.7,   24.8,   18.5,   20.2,   27.7,   20.5,   21.4,   28.5,   14.0,  999.0,   21.2,   10.4,   20.0,   21.2,   21.1,   41.7,   28.1,   13.9,   21.4,    0.8,   13.6,   21.0,   20.7,   13.6,   20.9,   20.0,   13.7,   20.9
2000/12/19 17:40,  999.0,    5.8,    8.8,    7.7,    5.1,    5.6,    5.4,    3.8,    3.5,    2.7,    1.9,    1.3,    1.6,    1.5,    1.2,    1.8,    2.3,    3.4,  999.0,  999.0,    7.9,   26.4,   24.4,   24.6,   25.6,   29.0,   31.1,   31.9,   32.3,   35.6,   36.9,   38.6,   38.0,   40.5,   41.4,   41.6,   41.5,   41.9,   41.5,   42.1,   42.5,   42.0,   41.6,   41.6,   41.7,   41.6,   41.6,   41.5,   41.3,   41.9,   41.7,   42.1,   41.8,   41.7,   42.0,   42.5,   41.7,   41.7
2000/12/19 17:50,   -1.0,    5.1,    8.6,    9.2,    6.1,    6.0,    4.3,    3.2,    3.2,    3.0,    2.6,    2.0,    1.8,    1.5,    1.2,    1.5,    2.9,    3.0,    3.7,    4.6,    8.5,   15.8,  999.0,   24.4,   27.7,  999.0,  999.0,   34.0,   34.9,   41.8,   37.8,   41.4,   42.2,  999.0,   41.4,   -0.7,   20.5,   31.5,   27.6,   20.0,   34.9,   42.0,   27.7,   34.5,   20.7,   -0.7,   41.8,   42.2,   20.2,   20.7,   10.1,   41.6,   31.6,   13.6,   13.4,   28.0,   20.8,   20.5
2000/12/19 18:00,    1.3,    8.8,   10.4,    6.9,    6.4,    6.1,    4.2,    2.6,    2.2,    1.5,    2.2,    1.6,    1.3,    0.9,    1.0,    1.7,    3.1,    4.0,    4.9,    7.3,    9.2,  999.0,   25.4,   27.6,  999.0,  999.0,  999.0,   34.7,   33.4,   36.8,  999.0,   40.1,   -1.0,  999.0,   41.0,   30.9,   34.5,   41.6,   -1.2,   41.7,   27.7,   20.8,   31.3,   30.8,   41.9,   -1.0,   27.9,   27.8,   41.5,   27.2,   41.5,   30.8,   41.9,   41.5,   41.6,   42.1,   41.7,   41.9
2000/12/19 18:10,    8.9,   11.2,   11.2,    6.6,    5.2,    5.1,    3.6,    2.4,    0.8,    1.6,    1.5,    1.1,    0.5,    0.9,    1.1,    1.6,    3.2,    4.2,    6.2,    8.2,   10.7,  999.0,  999.0,  999.0,  999.0,  999.0,  999.0,  999.0,  999.0,  999.0,  999.0,   32.4,  999.0,  999.0,  999.0,  999.0,  999.0,   37.9,  999.0,   40.2,  999.0,   41.7,   20.9,   -0.7,   20.4,   21.1,   41.8,   20.6,   -1.2,   42.2,  999.0,  999.0,   20.2,   -1.2,   -0.2,   20.8,  999.0,   20.5
2000/12/19 18:20,  999.0,   11.6,    8.1,    6.0,    5.1,    4.4,    3.9,    3.1,    1.8,    0.9,    0.3,    1.3,    1.6,    1.0,    0.8,    1.4,    2.9,    3.4,    4.3,    5.2,  999.0,  999.0,  999.0,  999.0,  999.0,  999.0,  999.0,  999.0,  999.0,  999.0,  999.0,  999.0,  999.0,  999.0,  999.0,  999.0,  999.0,  999.0,  999.0,  999.0,  -41.2,  999.0,  999.0,  -41.5,  999.0,  -41.2,  999.0,  -41.5,  999.0,  999.0,  -41.6,  -41.6,  999.0,  -41.8,  -41.0,  999.0,  -40.7,  -40.8
2000/12/19 18:30,  999.0,   11.6,    9.6,    6.5,    4.1,    3.3,    2.9,    2.7,    0.6,    6.1,    2.2,    2.3,    1.9,    1.7,    0.6,    1.7,    2.6,  999.0,  999.0,  999.0,  999.0,  999.0,  999.0,  999.0,  999.0,  999.0,  999.0,  999.0,  999.0,  999.0,  999.0,  999.0,  999.0,  -41.4,  -41.1,  999.0,  -41.5,  -41.3,  -41.5,  -41.0,  999.0,  -41.6,  -41.8,  999.0,  -42.0,  -41.8,  -41.3,  -42.1,  -41.8,  -41.8,  -41.2,  -41.7,  -41.7,  999.0,  -42.1,  999.0,  -41.8,  -42.3
2000/12/19 18:40,  999.0,    9.8,    6.7,    4.9,    1.3,    2.0,   -0.7,    2.3,  999.0,    2.6,    1.4,    1.1,    2.4,    2.4,    1.0,    1.6,    2.3,    3.1,  999.0,  999.0,  999.0,  999.0,  999.0,  999.0,  999.0,  -21.1,  999.0,  999.0,  999.0,  999.0,  999.0,  999.0,  -41.8,  999.0,  -41.7,  -41.9,  -42.2,  -41.8,  999.0,  -41.6,  -41.6,  -41.7,  -41.7,  -41.6,  999.0,  -41.8,  999.0,  -41.7,  -41.6,  -42.0,  -41.8,  -41.9,  -41.8,  -41.7,  -42.2,  -41.8,  -41.4,  999.0
2000/12/19 18:50,  999.0,  999.0,    6.3,    2.1,    0.9,   -0.6,   -1.2,   -1.3,   -2.3,   -1.3,    0.0,    0.6,    1.4,    1.4,    1.4,    1.3,    1.9,    2.6,    3.1,    4.7,    4.9,    7.3,   -2.9,  999.0,  999.0,  999.0,  999.0,  999.0,  999.0,  999.0,  999.0,  999.0,  -36.1,  -37.9,  -40.2,  -41.6,  -41.3,  999.0,  -41.7,  -41.7,  -42.6,  -42.2,  -41.7,  -41.5,  -42.1,  -41.8,  999.0,  999.0,  -42.5,  -41.7,  -42.0,  -41.9,  -42.2,  -41.6,  -41.8,  -41.7,  -41.3,  -41.9
2000/12/19 19:00,  999.0,    7.3,    1.5,    3.4,    2.7,    1.1,    3.3,   -1.9,    0.1,    0.2,  999.0,   -1.2,    0.2,    1.1,    1.6,    2.1,    2.6,    3.4,    4.0,    4.4,    3.9,    6.5,  999.0,  999.0,  999.0,  -17.3,  999.0,  999.0,  999.0,  999.0,  999.0,  999.0,  999.0,  999.0,  999.0,  999.0,  999.0,  -41.7,  -41.0,  -41.2,  -30.7,  -34.3,  -41.4,  -41.6,  -20.7,  -41.8,   -6.5,  999.0,  -41.3,  -27.3,  999.0,  -40.9,  -40.8,  -41.7,  -26.9,  999.0,  999.0,    0.5
2000/12/19 19:10,  999.0,   10.0,    7.9,    5.1,    4.1,    4.0,    2.3,    1.2,    2.0,   -1.3,    1.9,    1.4,    3.0,    1.0,    0.9,    1.2,    2.9,    3.5,    3.6,    5.4,    6.3,    7.9,  999.0,  999.0,  999.0,  999.0,    8.7,  999.0,    9.3,    9.3,   10.6,  999.0,  999.0,  999.0,   -2.2,  999.0,  999.0,  999.0,  -41.2,  999.0,  -41.3,  999.0,  -41.4,  -41.9,  -41.6,  999.0,  -41.4,  999.0,  -41.8,  999.0,  999.0,  999.0,  -41.6,  999.0,  -41.5,  999.0,  999.0,  -41.5
2000/12/19 19:20,  999.0,    9.1,    5.7,    4.1,    6.1,    2.5,    3.1,    3.7,    2.3,    1.5,    1.5,   -0.4,    1.0,    0.0,    0.5,    0.7,    1.9,    3.8,    2.6,    4.0,    6.5,   10.7,  999.0,  999.0,  999.0,   14.9,  999.0,  999.0,  999.0,   20.2,  999.0,  999.0,  999.0,   26.3,   28.1,  999.0,  999.0,  999.0,  999.0,  999.0,  999.0,  999.0,  999.0,  999.0,  999.0,  999.0,  999.0,  999.0,  999.0,  999.0,   -2.2,   -2.3,  999.0,   -0.5,  999.0,  999.0,   -0.9,  999.0
2000/12/19 19:30,  999.0,  999.0,    3.0,    0.9,    0.2,   -0.3,    0.3,   -3.9,   -0.7,    0.7,   -2.1,   -0.0,   -2.4,   -2.2,    0.9,    1.3,    2.3,    4.1,    4.3,    4.5,    4.5,  999.0,  999.0,  999.0,  999.0,  999.0,  999.0,  999.0,  999.0,  999.0,  999.0,  999.0,  999.0,  999.0,  999.0,  999.0,  999.0,  999.0,  999.0,  999.0,  999.0,  999.0,  999.0,  999.0,  999.0,  999.0,  999.0,  999.0,  999.0,  999.0,  999.0,  999.0,  999.0,  999.0,  999.0,  999.0,  999.0,  999.0
2000/12/19 19:40,  999.0,  999.0,   -6.0,   -5.2,  -12.2,   -2.9,   -8.3,   -3.2,   -6.2,   -2.1,   -5.8,   -2.7,    0.3,    0.3,    1.6,    2.0,    2.4,    3.3,    5.1,    6.7,   10.7,  999.0,  999.0,  999.0,  999.0,  999.0,  999.0,  999.0,  999.0,  999.0,  999.0,  999.0,  999.0,  999.0,  999.0,   18.0,  999.0,  999.0,  999.0,  999.0,  999.0,  999.0,  999.0,  999.0,  999.0,  999.0,  999.0,  999.0,  999.0,  999.0,  999.0,  999.0,  999.0,  999.0,  999.0,  999.0,  999.0,  999.0
2000/12/19 19:50,  999.0,    8.9,  999.0,    7.0,    3.6,    2.7,   -0.1,    0.6,  999.0,   -2.1,  999.0,  999.0,   -1.7,    0.2,    0.8,    1.6,    2.6,    4.1,    5.3,  999.0,  999.0,  999.0,  999.0,  999.0,  999.0,  999.0,  999.0,  999.0,  999.0,  999.0,  999.0,  999.0,  999.0,  999.0,  999.0,  999.0,  999.0,  999.0,  -20.5,  -20.8,  -19.9,  -19.6,  999.0,  -19.7,  -20.1,  999.0,  -19.3,  999.0,  -18.4,  -19.4,  999.0,  -18.3,  -18.1,  999.0,  999.0,  999.0,  999.0,  999.0
2000/12/19 20:00,  999.0,  999.0,    4.5,    4.2,  999.0,    6.8,    3.4,    5.0,   -0.6,    2.9,    2.0,  999.0,    2.2,   -1.4,    1.5,    2.2,    3.6,    2.8,  999.0,  999.0,  999.0,  999.0,  999.0,  999.0,  999.0,  999.0,  999.0,  999.0,  999.0,  999.0,  999.0,  999.0,  999.0,  999.0,  999.0,  999.0,  999.0,  999.0,  999.0,  999.0,  999.0,  999.0,  999.0,  999.0,  999.0,  999.0,  999.0,  999.0,  999.0,  999.0,  999.0,  999.0,  999.0,  999.0,  999.0,  999.0,  999.0,  999.0
2000/12/19 20:10,  999.0,    3.4,  999.0,    7.7,  999.0,  999.0,    9.5,    9.0,    8.7,    6.1,    3.0,  999.0,  999.0,  999.0,    1.4,    1.3,    1.6,   -1.0,  999.0,  999.0,  999.0,  999.0,  999.0,  999.0,  999.0,  999.0,  999.0,  999.0,   -8.9,  999.0,  999.0,  -11.5,  -11.2,  999.0,  -10.6,    0.5,   -0.0,    0.9,  999.0,    1.0,    0.9,    1.0,   -7.6,  999.0,  999.0,  999.0,    0.3,  999.0,  999.0,    0.8,    0.2,  999.0,    0.8,  999.0,    0.1,    0.1,    0.2,    0.8
2000/12/19 20:20,  999.0,    9.1,  999.0,    8.9,    3.5,    3.7,    4.9,    4.2,    3.0,    5.1,    5.1,    1.9,    3.0,    2.3,    2.4,    3.1,    2.3,    0.9,  999.0,    2.6,  999.0,  999.0,  999.0,  999.0,  999.0,  999.0,  999.0,  999.0,  999.0,    3.6,    2.1,    0.8,    0.7,    3.0,    0.8,    0.6,    0.9,    1.0,    0.7,  999.0,    1.2,  999.0,  999.0,    0.2,    0.9,    0.5,    0.7,   -0.1,    1.0,  999.0,  999.0,    0.7,    1.1,  999.0,    0.8,  999.0,    1.1,  999.0
2000/12/19 20:30,  999.0,  999.0,  999.0,    5.7,    6.2,  999.0,   -0.2,    1.8,    7.3,    6.4,    3.7,    3.2,    3.0,    2.1,    1.7,    2.1,    3.0,    3.6,  999.0,  999.0,    8.5,  999.0,   13.3,  999.0,  999.0,  999.0,  999.0,  999.0,   11.7,   10.8,   12.3,   13.9,   15.0,  999.0,    6.2,    4.6,    3.9,    9.3,    2.3,   21.5,    0.7,    1.1,    0.7,   11.4,    0.4,    0.2,    0.3,  999.0,    0.1,   -0.1,  999.0,    0.7,    1.1,    0.5,  999.0,    0.7,    0.6,    0.6
2000/12/19 20:40,  999.0,    3.6,    2.6,    2.0,    6.6,    6.7,    7.1,    4.5,    6.9,    4.6,    4.1,    2.9,    1.9,    1.1,    2.2,    3.3,    4.3,    6.7,  999.0,  999.0,  999.0,  999.0,  999.0,  999.0,  999.0,  999.0,    8.5,   12.0,  999.0,    9.0,    8.4,    7.5,    8.4,    7.9,    5.6,    4.3,  999.0,    2.0,    3.1,    1.7,  999.0,    0.1,    0.4,    1.1,    0.5,    0.1,    0.6,    1.0,  999.0,    1.0,    0.6,    0.3,    0.7,    0.6,    0.8,    1.7,    0.7,    0.7
2000/12/19 20:50,  999.0,  999.0,  999.0,    2.4,    1.2,    1.9,    1.7,    3.9,    6.4,    6.2,    6.0,    4.3,    3.5,    2.2,    1.5,  999.0,    3.4,  999.0,    8.7,  999.0,  999.0,    5.6,  999.0,  999.0,  999.0,  999.0,   12.2,   11.1,   11.1,    9.9,    9.6,    8.5,    7.3,    5.5,  999.0,  999.0,    3.8,    1.0,    0.8,    0.9,    0.7,    0.8,    0.8,    0.9,    0.9,  999.0,  999.0,    0.8,    0.8,  999.0,    0.5,    1.4,    1.1,    1.2,    0.9,    0.9,  999.0,    0.7
2000/12/19 21:00,  999.0,    0.7,    2.5,    3.0,    2.8,    2.9,    1.3,  999.0,    6.8,    6.5,    3.7,    4.3,    4.3,    2.3,    2.6,    3.7,    5.1,    5.8,    6.6,    6.1,    9.6,    6.8,  999.0,  999.0,  999.0,  999.0,  999.0,  999.0,    4.5,    4.4,    1.7,  999.0,    0.2,    0.4,    0.5,    0.3,  999.0,    0.7,    0.9,    0.7,    0.9,    0.3,  999.0,    0.1,    0.5,    1.2,    0.2,    1.7,    0.2,    0.8,    0.5,    0.9,    0.8,  999.0,    0.9,    0.6,    1.0,    0.9
2000/12/19 21:10,  999.0,    2.4,    1.2,    2.4,    2.2,    2.1,    1.7,    3.5,    1.4,    4.5,    3.8,    4.1,    3.6,    2.6,    4.2,    3.4,    3.5,    5.9,    7.7,    7.1,    6.4,    4.3,    3.8,    0.0,    7.6,  999.0,   12.1,   10.0,    7.6,    6.6,    5.5,    2.8,    2.9,    2.3,    0.7,    0.7,    0.9,    0.5,   -0.0,    0.3,    0.3,  999.0,    0.3,    0.8,    1.0,    0.6,    0.0,    1.0,  999.0,    0.8,    0.8,    0.8,    1.1,    0.9,    0.9,    0.8,    0.7,    0.6
2000/12/19 21:20,  999.0,    1.3,    1.7,    3.9,    3.4,    3.6,    2.9,    7.2,    4.1,    5.0,    5.6,    4.3,    3.8,    3.8,    3.3,    3.4,    3.6,    4.2,    6.2,    5.4,    5.0,  999.0,  999.0,  999.0,  999.0,   10.6,    9.0,    7.0,  999.0,    6.2,    4.4,    2.9,    2.1,    1.5,    1.3,    0.5,    0.5,  999.0,    0.6,    1.0,    0.8,    0.3,    0.6,    0.8,    0.8,    0.6,    0.9,    1.0,    1.1,    0.5,    1.6,    0.6,    1.2,    1.2,    0.9,    1.2,    0.4,    0.5
2000/12/19 21:30,  999.0,    6.3,    2.9,    7.2,    4.9,    4.0,    2.1,    6.6,    3.9,    2.8,    4.1,    4.7,    4.2,    3.6,    3.7,    3.7,    4.5,    4.2,    8.7,    8.7,    5.7,  999.0,  999.0,  999.0,  999.0,    9.6,  999.0,  999.0,    6.7,    4.8,    6.1,    5.6,    9.1,    0.7,    1.3,    3.3,    1.1,    2.7,  -19.7,  999.0,  999.0,    0.3,  -10.4,    0.4,    0.1,    0.7,  -21.2,  -20.9,    1.0,    0.8,  -10.5,   -6.6,  999.0,  999.0,    0.4,  -20.9,    0.7,   -6.0
2000/12/19 21:40,  999.0,    8.3,    6.5,    6.3,    5.3,    7.4,    5.4,    6.2,    4.1,    3.8,    3.8,    4.8,    3.8,    4.2,    3.6,    2.9,    4.2,  999.0,  999.0,    7.6,    7.1,    7.9,  999.0,  999.0,   16.4,   15.4,   12.6,   11.7,  999.0,   10.0,    5.3,    9.0,    8.3,    8.2,    4.0,    1.6,    3.0,    0.9,  999.0,    1.9,    2.6,    1.6,    0.5,    1.5,    0.7,    1.1,    1.0,    0.9,    0.9,    0.8,    0.8,    0.7,    1.0,  999.0,    1.0,    1.1,    0.3,    0.7
2000/12/19 21:50,  999.0,    6.1,   10.1,    8.4,    8.2,    6.9,    4.5,    2.2,    2.5,    1.3,    3.3,    4.7,    4.8,    3.9,    2.7,    3.2,    4.1,  999.0,    6.3,    6.4,    6.9,  999.0,  999.0,  999.0,  999.0,  999.0,  999.0,  999.0,   10.2,    8.0,    5.9,    5.9,    4.3,    2.2,    1.7,    1.3,    1.1,    0.5,    0.2,    0.2,    0.3,  999.0,    0.8,    0.8,    0.9,    0.6,    0.1,    0.6,    0.3,    0.6,    0.5,    0.6,    0.5,    0.9,    0.9,    0.2,    1.0,    0.8
2000/12/19 22:00,  999.0,    6.8,    8.8,   11.2,    8.0,    7.0,    5.9,    4.1,    1.3,    1.1,    3.4,    4.6,    5.2,    4.2,    3.5,    3.6,    4.1,    2.8,    4.3,    5.6,    5.8,  999.0,  999.0,  999.0,  999.0,  999.0,  999.0,    1.3,   -0.1,  999.0,    3.1,    0.8,    2.5,    0.7,    0.9,    1.1,    0.5,    0.8,    1.3,    0.6,  999.0,    1.4,    1.0,    0.7,    1.1,    1.1,    1.0,    0.5,    0.6,  999.0,    1.5,    0.7,    1.2,    0.8,    0.2,    0.6,  999.0,    0.9
2000/12/19 22:10,  999.0,    8.7,   11.3,    9.8,    9.4,    8.0,    6.2,    5.0,    3.1,    0.7,    2.8,    4.4,    4.9,    5.1,    4.6,    4.6,    6.1,    6.8,    8.6,    7.8,    7.3,    8.7,  999.0,  999.0,  999.0,  999.0,   12.4,  999.0,    8.1,    6.1,    4.2,    2.2,    0.8,    0.5,    1.3,    0.8,  999.0,    0.6,    0.8,    0.4,    0.8,    0.6,    0.8,    0.9,    0.7,    0.7,    0.6,  999.0,    0.5,    0.9,  999.0,    1.1,    0.6,    0.5,    0.4,    0.5,    0.6,    1.1
2000/12/19 22:20,  999.0,   14.7,   13.5,   13.5,   10.1,    8.2,    5.9,    3.8,    2.8,    3.0,    2.7,    3.7,    3.5,    5.0,    4.3,    4.8,  999.0,    6.6,    7.2,    7.3,    5.6,    4.6,    3.4,  999.0,  999.0,  999.0,    8.5,    7.4,    9.5,  999.0,  999.0,  999.0,    4.7,    4.6,  999.0,    3.7,    2.8,    2.4,    2.2,    0.7,    1.2,    1.3,  999.0,    0.9,  999.0,  999.0,  999.0,  999.0,  999.0,    0.7,    1.1,  999.0,    0.6,  999.0,    0.2,    0.5,    0.2,    0.5
2000/12/19 22:30,  999.0,    9.0,  999.0,   11.3,    8.3,    6.8,    3.2,    2.5,    1.7,    2.3,    2.4,    4.1,    5.3,    4.1,    4.4,    5.1,    6.6,    8.3,    7.2,    6.3,    5.9,    5.5,    6.9,  999.0,  999.0,  999.0,  999.0,  999.0,  999.0,    9.8,  999.0,    7.7,  999.0,    6.3,    5.7,    4.3,    3.2,    2.7,    1.3,    1.3,    0.8,  999.0,    0.6,    1.7,    0.8,   -9.4,  999.0,  999.0,  -41.7,  -10.3,  -20.7,  999.0,  -10.3,    1.1,  999.0,  -20.7,  -41.0,    0.8
2000/12/19 22:40,  999.0,    8.5,    9.4,    9.2,    8.4,    6.1,    5.3,    2.6,    1.3,    1.3,    1.8,    4.9,    5.0,    4.7,    4.7,    5.7,    6.6,  999.0,    5.4,    6.7,    8.3,  999.0,  999.0,  999.0,  999.0,  999.0,  999.0,  999.0,  999.0,    8.6,   36.2,    9.2,   21.9,    4.8,   41.7,    2.7,    4.4,   21.2,    2.8,    0.7,    3.7,    1.8,    1.7,    1.1,  999.0,    1.0,   16.9,   36.0,    0.7,  999.0,   19.1,    3.3,    1.7,    0.6,    7.5,    0.5,    0.5,    0.6
2000/12/19 22:50,  999.0,  999.0,    7.2,    8.5,    7.5,    6.4,    4.6,    2.5,    0.4,   -0.9,    0.2,    3.8,    3.5,    4.4,    5.4,    6.4,    7.0,    7.9,    8.0,    7.5,    0.8,  999.0,  -10.7,  999.0,  999.0,  999.0,  999.0,  999.0,   -7.8,  999.0,  999.0,  999.0,  999.0,    0.5,  999.0,  999.0,  999.0,  999.0,    0.6,  999.0,  999.0,  999.0,  999.0,  999.0,  999.0,    1.1,    0.8,    0.6,    1.1,  999.0,  999.0,    0.5,    0.6,    2.1,  999.0,    0.9,  999.0,  999.0
2000/12/19 23:00,  999.0,    5.6,    7.4,    8.3,    7.1,    5.7,    3.7,    2.1,    0.3,    0.1,    1.7,    2.8,    3.4,    4.4,    5.2,    5.6,    6.1,    2.9,    4.7,    2.8,    1.4,  999.0,  999.0,  999.0,  999.0,   -3.9,  999.0,  999.0,  999.0,    1.8,    1.0,  999.0,    0.7,    0.4,    0.8,  999.0,    1.1,    1.0,    0.5,    0.7,    0.3,    0.9,    1.0,    1.2,    1.0,    0.4,    0.9,    1.1,    1.1,  999.0,    1.0,    0.8,  999.0,    1.0,    0.9,    0.4,    1.0,    0.6
2000/12/19 23:10,  999.0,    6.4,    8.2,    8.5,    6.2,    4.6,    3.2,    1.1,   -0.6,    0.2,    1.5,    2.9,    3.9,    4.1,    5.1,    7.0,    6.4,    5.9,    4.8,    3.2,    1.9,  999.0,  999.0,  999.0,  999.0,  999.0,  999.0,  999.0,    0.2,  999.0,    0.2,    0.7,  999.0,    0.2,    0.6,    0.5,    0.5,    0.6,    0.8,    0.8,    0.4,    0.3,    0.7,    0.7,    0.8,    1.4,    1.0,    0.9,    0.7,    0.2,    0.6,    1.0,   -0.4,    0.8,    0.4,    0.5,    0.5,    0.4
2000/12/19 23:20,  999.0,    6.8,    4.9,    7.2,    5.8,    4.6,    2.4,    0.5,   -0.5,    1.5,    1.8,    3.2,    4.0,    4.4,    4.5,    5.3,    6.1,    6.5,    6.3,    5.3,    4.1,    3.1,  999.0,    0.4,  999.0,  999.0,   -3.6,   -4.2,   -0.6,  999.0,   -0.3,    0.5,    0.5,    0.3,    1.0,    0.5,    0.7,    1.1,    0.6,    1.8,    0.4,    1.0,  999.0,    0.7,  999.0,    0.7,    0.9,    0.1,    0.5,    0.2,    1.3,    0.7,    1.1,  999.0,    0.7,    0.6,    0.7,  999.0
2000/12/19 23:30,  999.0,    3.9,    7.9,    7.0,    6.4,    4.7,    2.6,    1.3,    0.1,    2.2,    2.1,    3.4,    3.3,    3.9,    4.3,    5.5,    5.6,    6.0,    5.4,    4.8,    4.8,    1.3,  999.0,  999.0,   -0.4,  999.0,   14.6,    8.0,  999.0,  999.0,  999.0,   29.5,  999.0,    1.1,    0.8,    1.0,    0.6,  999.0,    1.1,  999.0,    0.9,    1.6,    0.6,   38.1,  999.0,   19.8,    0.5,   13.8,  999.0,   14.7,   41.8,   42.4,   21.8,    0.8,  999.0,    1.8,   14.7,    0.7
2000/12/19 23:40,  999.0,    6.8,    9.6,    9.1,    6.8,    6.4,    4.7,    3.3,    2.2,    3.3,    3.6,    4.8,    4.7,    5.1,    6.0,    7.1,    7.4,    8.0,    8.9,   10.4,   11.0,   11.0,  999.0,  999.0,  999.0,   11.8,   18.1,  999.0,  999.0,  999.0,  999.0,  999.0,   34.0,   34.8,   36.0,   41.9,   39.6,   37.7,   40.1,   39.9,   41.2,   42.3,   41.5,   30.7,   30.9,   27.4,   41.5,   41.0,   34.4,   41.5,   41.2,   41.3,   41.6,   41.5,   41.8,   41.9,   20.3,   41.5
2000/12/19 23:50,  999.0,    8.3,    7.5,    7.7,    6.3,    5.8,    5.6,    6.0,    4.6,    3.5,    2.2,    4.4,    4.7,    5.3,    6.5,    7.9,    6.9,    8.1,    8.5,   10.1,   11.4,  999.0,  999.0,  999.0,  999.0,  999.0,  999.0,  999.0,  999.0,  999.0,  999.0,  999.0,  999.0,  999.0,  999.0,  999.0,  999.0,  999.0,   42.1,   41.7,   42.4,   42.3,   42.3,  999.0,   41.8,  999.0,   42.3,  999.0,   42.2,   41.4,  999.0,  999.0,   42.2,  999.0,   42.1,   42.4,   41.1,  999.0
